Wetterdaten: Dienstag, 04.08.2009
Datum Zeit Temp. Innen Temp. Aussen UV X Diff Temp. Feuchte Inne Feuchte Auss Sonnenschein Luftdruck Regen ab 0,1 Wind Sonnenschein Windben
04.08.2009 00:00 21,8 C 13,6 C 0,0 UV-I 0,0 C 54 % 80 % 0 % 1019,8 hPa 0,0 l/m 0,0 km/h (0 Bft) 0 min 0,0 km/h (0 Bft)
04.08.2009 00:02 21,8 C 13,6 C 0,0 UV-I 0,0 C 55 % 80 % 0 % 1019,8 hPa 0,0 l/m 0,0 km/h (0 Bft) 0 min 0,0 km/h (0 Bft)
04.08.2009 00:04 21,8 C 13,6 C 0,0 UV-I 0,0 C 54 % 80 % 0 % 1019,8 hPa 0,0 l/m 0,0 km/h (0 Bft) 0 min 0,0 km/h (0 Bft)
04.08.2009 00:06 21,8 C 13,5 C 0,0 UV-I 0,0 C 55 % 80 % 0 % 1019,8 hPa 0,0 l/m 0,0 km/h (0 Bft) 0 min 0,0 km/h (0 Bft)
04.08.2009 00:08 21,8 C 13,5 C 0,0 UV-I 0,0 C 55 % 80 % 0 % 1019,8 hPa 0,0 l/m 0,0 km/h (0 Bft) 0 min 0,0 km/h (0 Bft)
04.08.2009 00:10 21,8 C 13,5 C 0,0 UV-I 0,0 C 55 % 81 % 0 % 1019,8 hPa 0,0 l/m 0,0 km/h (0 Bft) 0 min 0,0 km/h (0 Bft)
04.08.2009 00:12 21,8 C 13,5 C 0,0 UV-I 0,0 C 55 % 81 % 0 % 1019,8 hPa 0,0 l/m 0,0 km/h (0 Bft) 0 min 0,0 km/h (0 Bft)
04.08.2009 00:14 21,8 C 13,3 C 0,0 UV-I 0,0 C 55 % 81 % 0 % 1019,8 hPa 0,0 l/m 0,0 km/h (0 Bft) 0 min 0,0 km/h (0 Bft)
04.08.2009 00:18 21,8 C 13,2 C 0,0 UV-I 0,0 C 55 % 81 % 0 % 1019,6 hPa 0,0 l/m 0,0 km/h (0 Bft) 0 min 0,0 km/h (0 Bft)
04.08.2009 00:22 21,7 C 13,3 C 0,0 UV-I 0,0 C 55 % 82 % 0 % 1019,6 hPa 0,0 l/m 0,0 km/h (0 Bft) 0 min 0,0 km/h (0 Bft)
04.08.2009 00:24 21,7 C 13,2 C 0,0 UV-I 0,0 C 55 % 82 % 0 % 1019,6 hPa 0,0 l/m 0,0 km/h (0 Bft) 0 min 0,0 km/h (0 Bft)
04.08.2009 00:26 21,7 C 13,1 C 0,0 UV-I 0,0 C 55 % 82 % 0 % 1019,6 hPa 0,0 l/m 0,0 km/h (0 Bft) 0 min 0,0 km/h (0 Bft)
04.08.2009 00:28 21,7 C 13,1 C 0,0 UV-I 0,0 C 55 % 82 % 0 % 1019,6 hPa 0,0 l/m 0,0 km/h (0 Bft) 0 min 0,0 km/h (0 Bft)
04.08.2009 00:30 21,7 C 13,0 C 0,0 UV-I 0,0 C 55 % 82 % 0 % 1019,6 hPa 0,0 l/m 0,0 km/h (0 Bft) 0 min 0,0 km/h (0 Bft)
04.08.2009 00:32 21,7 C 13,1 C 0,0 UV-I 0,0 C 55 % 82 % 0 % 1019,6 hPa 0,0 l/m 0,0 km/h (0 Bft) 0 min 0,0 km/h (0 Bft)
04.08.2009 00:34 21,7 C 13,1 C 0,0 UV-I 0,0 C 55 % 82 % 0 % 1019,6 hPa 0,0 l/m 0,0 km/h (0 Bft) 0 min 0,0 km/h (0 Bft)
04.08.2009 00:36 21,7 C 12,9 C 0,0 UV-I 0,0 C 55 % 82 % 0 % 1019,8 hPa 0,0 l/m 0,0 km/h (0 Bft) 0 min 0,0 km/h (0 Bft)
04.08.2009 00:38 21,7 C 12,9 C 0,0 UV-I 0,0 C 55 % 82 % 0 % 1019,8 hPa 0,0 l/m 0,0 km/h (0 Bft) 0 min 0,0 km/h (0 Bft)
04.08.2009 00:40 21,7 C 12,9 C 0,0 UV-I 0,0 C 55 % 82 % 0 % 1019,8 hPa 0,0 l/m 0,0 km/h (0 Bft) 0 min 0,0 km/h (0 Bft)
04.08.2009 00:44 21,6 C 12,9 C 0,0 UV-I 0,0 C 55 % 83 % 0 % 1019,8 hPa 0,0 l/m 0,0 km/h (0 Bft) 0 min 0,0 km/h (0 Bft)
04.08.2009 00:46 21,6 C 12,9 C 0,0 UV-I 0,0 C 55 % 83 % 0 % 1019,8 hPa 0,0 l/m 0,0 km/h (0 Bft) 0 min 0,0 km/h (0 Bft)
04.08.2009 00:48 21,6 C 12,8 C 0,0 UV-I 0,0 C 55 % 83 % 0 % 1019,8 hPa 0,0 l/m 0,0 km/h (0 Bft) 0 min 0,0 km/h (0 Bft)
04.08.2009 00:50 21,6 C 12,7 C 0,0 UV-I 0,0 C 55 % 83 % 0 % 1019,8 hPa 0,0 l/m 0,0 km/h (0 Bft) 0 min 0,0 km/h (0 Bft)
04.08.2009 00:52 21,6 C 12,7 C 0,0 UV-I 0,0 C 55 % 83 % 0 % 1019,8 hPa 0,0 l/m 0,0 km/h (0 Bft) 0 min 0,0 km/h (0 Bft)
04.08.2009 00:54 21,6 C 12,6 C 0,0 UV-I 0,0 C 55 % 83 % 0 % 1019,8 hPa 0,0 l/m 0,0 km/h (0 Bft) 0 min 0,0 km/h (0 Bft)
04.08.2009 00:56 21,6 C 12,7 C 0,0 UV-I 0,0 C 55 % 83 % 0 % 1019,7 hPa 0,0 l/m 0,0 km/h (0 Bft) 0 min 0,0 km/h (0 Bft)
04.08.2009 01:00 21,5 C 12,6 C 0,0 UV-I 0,0 C 55 % 83 % 0 % 1019,7 hPa 0,0 l/m 0,0 km/h (0 Bft) 0 min 0,0 km/h (0 Bft)
04.08.2009 01:02 21,5 C 12,5 C 0,0 UV-I 0,0 C 55 % 83 % 0 % 1019,7 hPa 0,0 l/m 0,0 km/h (0 Bft) 0 min 0,0 km/h (0 Bft)
04.08.2009 01:04 21,5 C 12,5 C 0,0 UV-I 0,0 C 55 % 83 % 0 % 1019,7 hPa 0,0 l/m 0,0 km/h (0 Bft) 0 min 0,0 km/h (0 Bft)
04.08.2009 01:06 21,5 C 12,5 C 0,0 UV-I 0,0 C 55 % 84 % 0 % 1019,7 hPa 0,0 l/m 0,0 km/h (0 Bft) 0 min 0,0 km/h (0 Bft)
04.08.2009 01:08 21,5 C 12,4 C 0,0 UV-I 0,0 C 55 % 84 % 0 % 1019,7 hPa 0,0 l/m 0,0 km/h (0 Bft) 0 min 0,0 km/h (0 Bft)
04.08.2009 01:10 21,4 C 12,5 C 0,0 UV-I 0,0 C 55 % 84 % 0 % 1019,7 hPa 0,0 l/m 0,0 km/h (0 Bft) 0 min 0,0 km/h (0 Bft)
04.08.2009 01:12 21,4 C 12,4 C 0,0 UV-I 0,0 C 55 % 84 % 0 % 1019,7 hPa 0,0 l/m 0,0 km/h (0 Bft) 0 min 0,0 km/h (0 Bft)
04.08.2009 01:14 21,4 C 12,4 C 0,0 UV-I 0,0 C 55 % 84 % 0 % 1019,7 hPa 0,0 l/m 0,0 km/h (0 Bft) 0 min 0,0 km/h (0 Bft)
04.08.2009 01:16 21,4 C 12,3 C 0,0 UV-I 0,0 C 55 % 84 % 0 % 1019,8 hPa 0,0 l/m 0,0 km/h (0 Bft) 0 min 0,0 km/h (0 Bft)
04.08.2009 01:18 21,4 C 12,3 C 0,0 UV-I 0,0 C 55 % 84 % 0 % 1019,8 hPa 0,0 l/m 0,0 km/h (0 Bft) 0 min 0,0 km/h (0 Bft)
04.08.2009 01:20 21,4 C 12,3 C 0,0 UV-I 0,0 C 55 % 84 % 0 % 1019,8 hPa 0,0 l/m 0,0 km/h (0 Bft) 0 min 0,0 km/h (0 Bft)
04.08.2009 01:22 21,4 C 12,3 C 0,0 UV-I 0,0 C 55 % 84 % 0 % 1019,8 hPa 0,0 l/m 0,0 km/h (0 Bft) 0 min 0,0 km/h (0 Bft)
04.08.2009 01:24 21,4 C 12,3 C 0,0 UV-I 0,0 C 55 % 84 % 0 % 1019,8 hPa 0,0 l/m 0,0 km/h (0 Bft) 0 min 0,0 km/h (0 Bft)
04.08.2009 01:26 21,4 C 12,3 C 0,0 UV-I 0,0 C 55 % 84 % 0 % 1019,8 hPa 0,0 l/m 0,0 km/h (0 Bft) 0 min 0,0 km/h (0 Bft)
04.08.2009 01:28 21,4 C 12,2 C 0,0 UV-I 0,0 C 55 % 84 % 0 % 1019,8 hPa 0,0 l/m 0,0 km/h (0 Bft) 0 min 0,0 km/h (0 Bft)
04.08.2009 01:30 21,4 C 12,1 C 0,0 UV-I 0,0 C 55 % 84 % 0 % 1019,8 hPa 0,0 l/m 0,0 km/h (0 Bft) 0 min 0,0 km/h (0 Bft)
04.08.2009 01:32 21,2 C 12,1 C 0,0 UV-I 0,0 C 55 % 84 % 0 % 1019,8 hPa 0,0 l/m 0,0 km/h (0 Bft) 0 min 0,0 km/h (0 Bft)
04.08.2009 01:34 21,2 C 12,1 C 0,0 UV-I 0,0 C 55 % 84 % 0 % 1019,8 hPa 0,0 l/m 0,0 km/h (0 Bft) 0 min 0,0 km/h (0 Bft)
04.08.2009 01:36 21,2 C 12,0 C 0,0 UV-I 0,0 C 55 % 84 % 0 % 1019,9 hPa 0,0 l/m 0,0 km/h (0 Bft) 0 min 0,0 km/h (0 Bft)
04.08.2009 01:38 21,2 C 12,0 C 0,0 UV-I 0,0 C 55 % 85 % 0 % 1019,9 hPa 0,0 l/m 0,0 km/h (0 Bft) 0 min 0,0 km/h (0 Bft)
04.08.2009 01:42 21,2 C 12,1 C 0,0 UV-I 0,0 C 55 % 85 % 0 % 1019,9 hPa 0,0 l/m 0,0 km/h (0 Bft) 0 min 0,0 km/h (0 Bft)
04.08.2009 01:46 21,3 C 12,0 C 0,0 UV-I 0,0 C 55 % 85 % 0 % 1019,9 hPa 0,0 l/m 0,0 km/h (0 Bft) 0 min 0,0 km/h (0 Bft)
04.08.2009 01:48 21,3 C 11,9 C 0,0 UV-I 0,0 C 55 % 85 % 0 % 1019,9 hPa 0,0 l/m 0,0 km/h (0 Bft) 0 min 0,0 km/h (0 Bft)
04.08.2009 01:50 21,2 C 11,9 C 0,0 UV-I 0,0 C 55 % 85 % 0 % 1019,9 hPa 0,0 l/m 0,0 km/h (0 Bft) 0 min 0,0 km/h (0 Bft)
04.08.2009 01:56 21,2 C 11,8 C 0,0 UV-I 0,0 C 55 % 85 % 0 % 1019,6 hPa 0,0 l/m 0,0 km/h (0 Bft) 0 min 0,0 km/h (0 Bft)
04.08.2009 02:00 21,2 C 11,9 C 0,0 UV-I 0,0 C 55 % 86 % 0 % 1019,6 hPa 0,0 l/m 0,0 km/h (0 Bft) 0 min 0,0 km/h (0 Bft)
04.08.2009 02:02 21,2 C 11,9 C 0,0 UV-I 0,0 C 56 % 86 % 0 % 1019,6 hPa 0,0 l/m 0,0 km/h (0 Bft) 0 min 0,0 km/h (0 Bft)
04.08.2009 02:04 21,2 C 11,9 C 0,0 UV-I 0,0 C 56 % 86 % 0 % 1019,6 hPa 0,0 l/m 0,0 km/h (0 Bft) 0 min 0,0 km/h (0 Bft)
04.08.2009 02:06 21,2 C 11,8 C 0,0 UV-I 0,0 C 56 % 87 % 0 % 1019,6 hPa 0,0 l/m 0,0 km/h (0 Bft) 0 min 0,0 km/h (0 Bft)
04.08.2009 02:08 21,2 C 11,7 C 0,0 UV-I 0,0 C 55 % 87 % 0 % 1019,6 hPa 0,0 l/m 0,0 km/h (0 Bft) 0 min 0,0 km/h (0 Bft)
04.08.2009 02:10 21,2 C 11,7 C 0,0 UV-I 0,0 C 56 % 87 % 0 % 1019,6 hPa 0,0 l/m 0,0 km/h (0 Bft) 0 min 0,0 km/h (0 Bft)
04.08.2009 02:12 21,2 C 11,7 C 0,0 UV-I 0,0 C 56 % 87 % 0 % 1019,6 hPa 0,0 l/m 0,0 km/h (0 Bft) 0 min 0,0 km/h (0 Bft)
04.08.2009 02:14 21,2 C 11,7 C 0,0 UV-I 0,0 C 56 % 87 % 0 % 1019,6 hPa 0,0 l/m 0,0 km/h (0 Bft) 0 min 0,0 km/h (0 Bft)
04.08.2009 02:16 21,2 C 11,7 C 0,0 UV-I 0,0 C 56 % 87 % 0 % 1019,6 hPa 0,0 l/m 0,0 km/h (0 Bft) 0 min 0,0 km/h (0 Bft)
04.08.2009 02:18 21,2 C 11,6 C 0,0 UV-I 0,0 C 55 % 87 % 0 % 1019,6 hPa 0,0 l/m 0,0 km/h (0 Bft) 0 min 0,0 km/h (0 Bft)
04.08.2009 02:20 21,1 C 11,6 C 0,0 UV-I 0,0 C 55 % 87 % 0 % 1019,6 hPa 0,0 l/m 0,0 km/h (0 Bft) 0 min 0,0 km/h (0 Bft)
04.08.2009 02:22 21,1 C 11,6 C 0,0 UV-I 0,0 C 55 % 87 % 0 % 1019,6 hPa 0,0 l/m 0,0 km/h (0 Bft) 0 min 0,0 km/h (0 Bft)
04.08.2009 02:24 21,1 C 11,6 C 0,0 UV-I 0,0 C 55 % 87 % 0 % 1019,6 hPa 0,0 l/m 0,0 km/h (0 Bft) 0 min 0,0 km/h (0 Bft)
04.08.2009 02:26 21,1 C 11,6 C 0,0 UV-I 0,0 C 55 % 87 % 0 % 1019,6 hPa 0,0 l/m 0,0 km/h (0 Bft) 0 min 0,0 km/h (0 Bft)
04.08.2009 02:28 21,1 C 11,6 C 0,0 UV-I 0,0 C 55 % 87 % 0 % 1019,6 hPa 0,0 l/m 0,0 km/h (0 Bft) 0 min 0,0 km/h (0 Bft)
04.08.2009 02:30 21,1 C 11,6 C 0,0 UV-I 0,0 C 55 % 87 % 0 % 1019,6 hPa 0,0 l/m 0,0 km/h (0 Bft) 0 min 0,0 km/h (0 Bft)
04.08.2009 02:32 21,1 C 11,5 C 0,0 UV-I 0,0 C 55 % 87 % 0 % 1019,6 hPa 0,0 l/m 0,0 km/h (0 Bft) 0 min 0,0 km/h (0 Bft)
04.08.2009 02:34 21,1 C 11,5 C 0,0 UV-I 0,0 C 55 % 87 % 0 % 1019,6 hPa 0,0 l/m 0,0 km/h (0 Bft) 0 min 0,0 km/h (0 Bft)
04.08.2009 02:36 21,0 C 11,5 C 0,0 UV-I 0,0 C 55 % 87 % 0 % 1019,9 hPa 0,0 l/m 0,0 km/h (0 Bft) 0 min 0,0 km/h (0 Bft)
04.08.2009 02:38 21,0 C 11,5 C 0,0 UV-I 0,0 C 55 % 87 % 0 % 1019,9 hPa 0,0 l/m 0,0 km/h (0 Bft) 0 min 0,0 km/h (0 Bft)
04.08.2009 02:40 21,0 C 11,5 C 0,0 UV-I 0,0 C 56 % 87 % 0 % 1019,9 hPa 0,0 l/m 0,0 km/h (0 Bft) 0 min 0,0 km/h (0 Bft)
04.08.2009 02:42 21,0 C 11,4 C 0,0 UV-I 0,0 C 56 % 87 % 0 % 1019,9 hPa 0,0 l/m 0,0 km/h (0 Bft) 0 min 0,0 km/h (0 Bft)
04.08.2009 02:44 21,0 C 11,4 C 0,0 UV-I 0,0 C 56 % 87 % 0 % 1019,9 hPa 0,0 l/m 0,0 km/h (0 Bft) 0 min 0,0 km/h (0 Bft)
04.08.2009 02:46 21,0 C 11,5 C 0,0 UV-I 0,0 C 55 % 87 % 0 % 1019,9 hPa 0,0 l/m 0,0 km/h (0 Bft) 0 min 0,0 km/h (0 Bft)
04.08.2009 02:48 21,0 C 11,5 C 0,0 UV-I 0,0 C 56 % 87 % 0 % 1019,9 hPa 0,0 l/m 0,0 km/h (0 Bft) 0 min 0,0 km/h (0 Bft)
04.08.2009 02:50 21,0 C 11,4 C 0,0 UV-I 0,0 C 56 % 87 % 0 % 1019,9 hPa 0,0 l/m 0,0 km/h (0 Bft) 0 min 0,0 km/h (0 Bft)
04.08.2009 02:52 21,0 C 11,4 C 0,0 UV-I 0,0 C 56 % 87 % 0 % 1019,9 hPa 0,0 l/m 0,0 km/h (0 Bft) 0 min 0,0 km/h (0 Bft)
04.08.2009 02:54 21,0 C 11,3 C 0,0 UV-I 0,0 C 55 % 87 % 0 % 1019,9 hPa 0,0 l/m 0,0 km/h (0 Bft) 0 min 0,0 km/h (0 Bft)
04.08.2009 02:56 21,0 C 11,3 C 0,0 UV-I 0,0 C 55 % 87 % 0 % 1020,1 hPa 0,0 l/m 0,0 km/h (0 Bft) 0 min 0,0 km/h (0 Bft)
04.08.2009 02:58 21,0 C 11,3 C 0,0 UV-I 0,0 C 55 % 87 % 0 % 1020,1 hPa 0,0 l/m 0,0 km/h (0 Bft) 0 min 0,0 km/h (0 Bft)
04.08.2009 03:00 20,9 C 11,3 C 0,0 UV-I 0,0 C 56 % 87 % 0 % 1020,1 hPa 0,0 l/m 0,0 km/h (0 Bft) 0 min 0,0 km/h (0 Bft)
04.08.2009 03:02 20,9 C 11,2 C 0,0 UV-I 0,0 C 56 % 87 % 0 % 1020,1 hPa 0,0 l/m 0,0 km/h (0 Bft) 0 min 0,0 km/h (0 Bft)
04.08.2009 03:04 20,9 C 11,2 C 0,0 UV-I 0,0 C 55 % 87 % 0 % 1020,1 hPa 0,0 l/m 0,0 km/h (0 Bft) 0 min 0,0 km/h (0 Bft)
04.08.2009 03:06 20,9 C 11,2 C 0,0 UV-I 0,0 C 56 % 88 % 0 % 1020,1 hPa 0,0 l/m 0,0 km/h (0 Bft) 0 min 0,0 km/h (0 Bft)
04.08.2009 03:08 20,9 C 11,3 C 0,0 UV-I 0,0 C 56 % 88 % 0 % 1020,1 hPa 0,0 l/m 0,0 km/h (0 Bft) 0 min 0,0 km/h (0 Bft)
04.08.2009 03:12 20,9 C 11,2 C 0,0 UV-I 0,0 C 55 % 88 % 0 % 1020,1 hPa 0,0 l/m 0,0 km/h (0 Bft) 0 min 0,0 km/h (0 Bft)
04.08.2009 03:16 20,8 C 11,1 C 0,0 UV-I 0,0 C 55 % 88 % 0 % 1019,8 hPa 0,0 l/m 0,0 km/h (0 Bft) 0 min 0,0 km/h (0 Bft)
04.08.2009 03:18 20,8 C 11,1 C 0,0 UV-I 0,0 C 55 % 88 % 0 % 1019,8 hPa 0,0 l/m 0,0 km/h (0 Bft) 0 min 0,0 km/h (0 Bft)
04.08.2009 03:22 20,8 C 11,0 C 0,0 UV-I 0,0 C 55 % 88 % 0 % 1019,8 hPa 0,0 l/m 0,0 km/h (0 Bft) 0 min 0,0 km/h (0 Bft)
04.08.2009 03:24 20,8 C 11,0 C 0,0 UV-I 0,0 C 55 % 88 % 0 % 1019,8 hPa 0,0 l/m 0,0 km/h (0 Bft) 0 min 0,0 km/h (0 Bft)
04.08.2009 03:26 20,8 C 11,1 C 0,0 UV-I 0,0 C 55 % 88 % 0 % 1019,8 hPa 0,0 l/m 0,0 km/h (0 Bft) 0 min 0,0 km/h (0 Bft)
04.08.2009 03:28 20,8 C 11,1 C 0,0 UV-I 0,0 C 55 % 88 % 0 % 1019,8 hPa 0,0 l/m 0,0 km/h (0 Bft) 0 min 0,0 km/h (0 Bft)
04.08.2009 03:30 20,8 C 11,1 C 0,0 UV-I 0,0 C 55 % 88 % 0 % 1019,8 hPa 0,0 l/m 0,0 km/h (0 Bft) 0 min 0,0 km/h (0 Bft)
04.08.2009 03:32 20,8 C 11,0 C 0,0 UV-I 0,0 C 55 % 88 % 0 % 1019,8 hPa 0,0 l/m 0,0 km/h (0 Bft) 0 min 0,0 km/h (0 Bft)
04.08.2009 03:34 20,8 C 10,9 C 0,0 UV-I 0,0 C 55 % 88 % 0 % 1019,8 hPa 0,0 l/m 0,0 km/h (0 Bft) 0 min 0,0 km/h (0 Bft)
04.08.2009 03:36 20,8 C 10,9 C 0,0 UV-I 0,0 C 55 % 88 % 0 % 1019,8 hPa 0,0 l/m 0,0 km/h (0 Bft) 0 min 0,0 km/h (0 Bft)
04.08.2009 03:38 20,8 C 10,9 C 0,0 UV-I 0,0 C 55 % 88 % 0 % 1019,8 hPa 0,0 l/m 0,0 km/h (0 Bft) 0 min 0,0 km/h (0 Bft)
04.08.2009 03:40 20,8 C 10,9 C 0,0 UV-I 0,0 C 55 % 88 % 0 % 1019,8 hPa 0,0 l/m 0,0 km/h (0 Bft) 0 min 0,0 km/h (0 Bft)
04.08.2009 03:42 20,8 C 10,9 C 0,0 UV-I 0,0 C 55 % 88 % 0 % 1019,8 hPa 0,0 l/m 0,0 km/h (0 Bft) 0 min 0,0 km/h (0 Bft)
04.08.2009 03:44 20,7 C 10,9 C 0,0 UV-I 0,0 C 55 % 88 % 0 % 1019,8 hPa 0,0 l/m 0,0 km/h (0 Bft) 0 min 0,0 km/h (0 Bft)
04.08.2009 03:46 20,7 C 10,8 C 0,0 UV-I 0,0 C 55 % 88 % 0 % 1019,8 hPa 0,0 l/m 0,0 km/h (0 Bft) 0 min 0,0 km/h (0 Bft)
04.08.2009 03:48 20,7 C 10,8 C 0,0 UV-I 0,0 C 55 % 88 % 0 % 1019,8 hPa 0,0 l/m 0,0 km/h (0 Bft) 0 min 0,0 km/h (0 Bft)
04.08.2009 03:50 20,7 C 10,8 C 0,0 UV-I 0,0 C 55 % 88 % 0 % 1019,8 hPa 0,0 l/m 0,0 km/h (0 Bft) 0 min 0,0 km/h (0 Bft)
04.08.2009 03:52 20,7 C 10,8 C 0,0 UV-I 0,0 C 55 % 88 % 0 % 1019,8 hPa 0,0 l/m 0,0 km/h (0 Bft) 0 min 0,0 km/h (0 Bft)
04.08.2009 03:54 20,7 C 10,8 C 0,0 UV-I 0,0 C 55 % 88 % 0 % 1019,8 hPa 0,0 l/m 0,0 km/h (0 Bft) 0 min 0,0 km/h (0 Bft)
04.08.2009 03:56 20,7 C 10,8 C 0,0 UV-I 0,0 C 55 % 89 % 0 % 1019,8 hPa 0,0 l/m 0,0 km/h (0 Bft) 0 min 0,0 km/h (0 Bft)
04.08.2009 03:58 20,7 C 10,8 C 0,0 UV-I 0,0 C 55 % 89 % 0 % 1019,8 hPa 0,0 l/m 0,0 km/h (0 Bft) 0 min 0,0 km/h (0 Bft)
04.08.2009 04:00 20,7 C 10,8 C 0,0 UV-I 0,0 C 55 % 89 % 0 % 1019,8 hPa 0,0 l/m 0,0 km/h (0 Bft) 0 min 0,0 km/h (0 Bft)
04.08.2009 04:02 20,7 C 10,7 C 0,0 UV-I 0,0 C 55 % 89 % 0 % 1019,8 hPa 0,0 l/m 0,0 km/h (0 Bft) 0 min 0,0 km/h (0 Bft)
04.08.2009 04:04 20,6 C 10,7 C 0,0 UV-I 0,0 C 55 % 89 % 0 % 1019,8 hPa 0,0 l/m 0,0 km/h (0 Bft) 0 min 0,0 km/h (0 Bft)
04.08.2009 04:06 20,6 C 10,7 C 0,0 UV-I 0,0 C 55 % 89 % 0 % 1019,8 hPa 0,0 l/m 0,0 km/h (0 Bft) 0 min 0,0 km/h (0 Bft)
04.08.2009 04:08 20,6 C 10,7 C 0,0 UV-I 0,0 C 55 % 89 % 0 % 1019,8 hPa 0,0 l/m 0,0 km/h (0 Bft) 0 min 0,0 km/h (0 Bft)
04.08.2009 04:10 20,6 C 10,6 C 0,0 UV-I 0,0 C 55 % 89 % 0 % 1019,8 hPa 0,0 l/m 0,0 km/h (0 Bft) 0 min 0,0 km/h (0 Bft)
04.08.2009 04:12 20,6 C 10,6 C 0,0 UV-I 0,0 C 55 % 89 % 0 % 1019,8 hPa 0,0 l/m 0,0 km/h (0 Bft) 0 min 0,0 km/h (0 Bft)
04.08.2009 04:14 20,6 C 10,7 C 0,0 UV-I 0,0 C 55 % 89 % 0 % 1019,8 hPa 0,0 l/m 0,0 km/h (0 Bft) 0 min 0,0 km/h (0 Bft)
04.08.2009 04:16 20,6 C 10,7 C 0,0 UV-I 0,0 C 55 % 89 % 0 % 1019,7 hPa 0,0 l/m 0,0 km/h (0 Bft) 0 min 0,0 km/h (0 Bft)
04.08.2009 04:18 20,6 C 10,6 C 0,0 UV-I 0,0 C 55 % 89 % 0 % 1019,7 hPa 0,0 l/m 0,0 km/h (0 Bft) 0 min 0,0 km/h (0 Bft)
04.08.2009 04:20 20,6 C 10,6 C 0,0 UV-I 0,0 C 55 % 89 % 0 % 1019,7 hPa 0,0 l/m 0,0 km/h (0 Bft) 0 min 0,0 km/h (0 Bft)
04.08.2009 04:22 20,6 C 10,5 C 0,0 UV-I 0,0 C 55 % 89 % 0 % 1019,7 hPa 0,0 l/m 0,0 km/h (0 Bft) 0 min 0,0 km/h (0 Bft)
04.08.2009 04:24 20,6 C 10,5 C 0,0 UV-I 0,0 C 55 % 89 % 0 % 1019,7 hPa 0,0 l/m 0,0 km/h (0 Bft) 0 min 0,0 km/h (0 Bft)
04.08.2009 04:26 20,6 C 10,5 C 0,0 UV-I 0,0 C 55 % 89 % 0 % 1019,7 hPa 0,0 l/m 0,0 km/h (0 Bft) 0 min 0,0 km/h (0 Bft)
04.08.2009 04:28 20,6 C 10,5 C 0,0 UV-I 0,0 C 55 % 89 % 0 % 1019,7 hPa 0,0 l/m 0,0 km/h (0 Bft) 0 min 0,0 km/h (0 Bft)
04.08.2009 04:30 20,6 C 10,5 C 0,0 UV-I 0,0 C 55 % 89 % 0 % 1019,7 hPa 0,0 l/m 0,0 km/h (0 Bft) 0 min 0,0 km/h (0 Bft)
04.08.2009 04:36 20,5 C 10,4 C 0,0 UV-I 0,0 C 55 % 88 % 0 % 1020,0 hPa 0,0 l/m 0,0 km/h (0 Bft) 0 min 0,0 km/h (0 Bft)
04.08.2009 04:40 20,5 C 10,4 C 0,0 UV-I 0,0 C 55 % 89 % 0 % 1020,0 hPa 0,0 l/m 0,0 km/h (0 Bft) 0 min 0,0 km/h (0 Bft)
04.08.2009 04:42 20,5 C 10,4 C 0,0 UV-I 0,0 C 55 % 89 % 0 % 1020,0 hPa 0,0 l/m 0,0 km/h (0 Bft) 0 min 0,0 km/h (0 Bft)
04.08.2009 04:44 20,5 C 10,3 C 0,0 UV-I 0,0 C 55 % 89 % 0 % 1020,0 hPa 0,0 l/m 0,0 km/h (0 Bft) 0 min 0,0 km/h (0 Bft)
04.08.2009 04:48 20,5 C 10,3 C 0,0 UV-I 0,0 C 55 % 89 % 0 % 1020,0 hPa 0,0 l/m 0,0 km/h (0 Bft) 0 min 0,0 km/h (0 Bft)
04.08.2009 04:50 20,5 C 10,2 C 0,0 UV-I 0,0 C 55 % 89 % 0 % 1020,0 hPa 0,0 l/m 0,0 km/h (0 Bft) 0 min 0,0 km/h (0 Bft)
04.08.2009 04:52 20,5 C 10,2 C 0,0 UV-I 0,0 C 55 % 89 % 0 % 1020,0 hPa 0,0 l/m 0,0 km/h (0 Bft) 0 min 0,0 km/h (0 Bft)
04.08.2009 04:54 20,5 C 10,3 C 0,0 UV-I 0,0 C 55 % 89 % 0 % 1020,0 hPa 0,0 l/m 0,0 km/h (0 Bft) 0 min 0,0 km/h (0 Bft)
04.08.2009 04:56 20,5 C 10,3 C 0,0 UV-I 0,0 C 55 % 89 % 0 % 1020,3 hPa 0,0 l/m 0,0 km/h (0 Bft) 0 min 0,0 km/h (0 Bft)
04.08.2009 04:58 20,5 C 10,2 C 0,0 UV-I 0,0 C 55 % 89 % 0 % 1020,3 hPa 0,0 l/m 0,0 km/h (0 Bft) 0 min 0,0 km/h (0 Bft)
04.08.2009 05:00 20,5 C 10,2 C 0,0 UV-I 0,0 C 55 % 89 % 0 % 1020,3 hPa 0,0 l/m 0,0 km/h (0 Bft) 0 min 0,0 km/h (0 Bft)
04.08.2009 05:02 20,4 C 10,2 C 0,0 UV-I 0,0 C 55 % 89 % 0 % 1020,3 hPa 0,0 l/m 0,0 km/h (0 Bft) 0 min 0,0 km/h (0 Bft)
04.08.2009 05:04 20,4 C 10,1 C 0,0 UV-I 0,0 C 55 % 89 % 0 % 1020,3 hPa 0,0 l/m 0,0 km/h (0 Bft) 0 min 0,0 km/h (0 Bft)
04.08.2009 05:06 20,4 C 10,1 C 0,0 UV-I 0,0 C 55 % 89 % 0 % 1020,3 hPa 0,0 l/m 0,0 km/h (0 Bft) 0 min 0,0 km/h (0 Bft)
04.08.2009 05:08 20,4 C 10,1 C 0,0 UV-I 0,0 C 55 % 89 % 0 % 1020,3 hPa 0,0 l/m 0,0 km/h (0 Bft) 0 min 0,0 km/h (0 Bft)
04.08.2009 05:10 20,4 C 10,0 C 0,0 UV-I 0,0 C 55 % 89 % 0 % 1020,3 hPa 0,0 l/m 0,0 km/h (0 Bft) 0 min 0,0 km/h (0 Bft)
04.08.2009 05:14 20,4 C 10,0 C 0,0 UV-I 0,0 C 55 % 89 % 0 % 1020,3 hPa 0,0 l/m 0,0 km/h (0 Bft) 0 min 0,0 km/h (0 Bft)
04.08.2009 05:16 20,4 C 10,1 C 0,0 UV-I 0,0 C 55 % 89 % 0 % 1020,2 hPa 0,0 l/m 0,0 km/h (0 Bft) 0 min 0,0 km/h (0 Bft)
04.08.2009 05:18 20,4 C 10,1 C 0,0 UV-I 0,0 C 55 % 89 % 0 % 1020,2 hPa 0,0 l/m 0,0 km/h (0 Bft) 0 min 0,0 km/h (0 Bft)
04.08.2009 05:20 20,4 C 10,1 C 0,0 UV-I 0,0 C 55 % 89 % 0 % 1020,2 hPa 0,0 l/m 0,0 km/h (0 Bft) 0 min 0,0 km/h (0 Bft)
04.08.2009 05:22 20,4 C 10,0 C 0,0 UV-I 0,0 C 54 % 89 % 0 % 1020,2 hPa 0,0 l/m 0,0 km/h (0 Bft) 0 min 0,0 km/h (0 Bft)
04.08.2009 05:24 20,4 C 10,0 C 0,0 UV-I 0,0 C 54 % 89 % 0 % 1020,2 hPa 0,0 l/m 0,0 km/h (0 Bft) 0 min 0,0 km/h (0 Bft)
04.08.2009 05:26 20,4 C 10,0 C 0,0 UV-I 0,0 C 54 % 89 % 0 % 1020,2 hPa 0,0 l/m 0,0 km/h (0 Bft) 0 min 0,0 km/h (0 Bft)
04.08.2009 05:28 20,4 C 9,9 C 0,0 UV-I 0,0 C 54 % 89 % 0 % 1020,2 hPa 0,0 l/m 0,0 km/h (0 Bft) 0 min 0,0 km/h (0 Bft)
04.08.2009 05:30 20,4 C 9,9 C 0,0 UV-I 0,0 C 54 % 89 % 0 % 1020,2 hPa 0,0 l/m 0,0 km/h (0 Bft) 0 min 0,0 km/h (0 Bft)
04.08.2009 05:32 20,4 C 9,9 C 0,0 UV-I 0,0 C 54 % 89 % 0 % 1020,2 hPa 0,0 l/m 0,0 km/h (0 Bft) 0 min 0,0 km/h (0 Bft)
04.08.2009 05:34 20,4 C 9,9 C 0,0 UV-I 0,0 C 54 % 89 % 0 % 1020,2 hPa 0,0 l/m 0,0 km/h (0 Bft) 0 min 0,0 km/h (0 Bft)
04.08.2009 05:36 20,4 C 9,9 C 0,0 UV-I 0,0 C 54 % 89 % 0 % 1020,4 hPa 0,0 l/m 0,0 km/h (0 Bft) 0 min 0,0 km/h (0 Bft)
04.08.2009 05:38 20,4 C 9,9 C 0,0 UV-I 0,0 C 54 % 89 % 0 % 1020,4 hPa 0,0 l/m 0,0 km/h (0 Bft) 0 min 0,0 km/h (0 Bft)
04.08.2009 05:40 20,4 C 9,8 C 0,0 UV-I 0,0 C 55 % 89 % 0 % 1020,4 hPa 0,0 l/m 0,0 km/h (0 Bft) 0 min 0,0 km/h (0 Bft)
04.08.2009 05:42 20,4 C 9,9 C 0,0 UV-I 0,0 C 55 % 89 % 0 % 1020,4 hPa 0,0 l/m 0,0 km/h (0 Bft) 0 min 0,0 km/h (0 Bft)
04.08.2009 05:44 20,4 C 9,9 C 0,0 UV-I 0,0 C 55 % 89 % 0 % 1020,4 hPa 0,0 l/m 0,0 km/h (0 Bft) 0 min 0,0 km/h (0 Bft)
04.08.2009 05:46 20,4 C 9,9 C 0,0 UV-I 0,0 C 55 % 89 % 0 % 1020,4 hPa 0,0 l/m 0,0 km/h (0 Bft) 0 min 0,0 km/h (0 Bft)
04.08.2009 05:48 20,4 C 9,9 C 0,0 UV-I 0,0 C 54 % 89 % 0 % 1020,4 hPa 0,0 l/m 0,0 km/h (0 Bft) 0 min 0,0 km/h (0 Bft)
04.08.2009 05:50 20,4 C 9,9 C 0,0 UV-I 0,0 C 54 % 90 % 0 % 1020,4 hPa 0,0 l/m 0,0 km/h (0 Bft) 0 min 0,0 km/h (0 Bft)
04.08.2009 05:52 20,4 C 9,8 C 0,0 UV-I 0,0 C 54 % 90 % 0 % 1020,4 hPa 0,0 l/m 0,0 km/h (0 Bft) 0 min 0,0 km/h (0 Bft)
04.08.2009 05:54 20,4 C 9,8 C 0,0 UV-I 0,0 C 54 % 90 % 0 % 1020,4 hPa 0,0 l/m 0,0 km/h (0 Bft) 0 min 0,0 km/h (0 Bft)
04.08.2009 05:56 20,4 C 9,7 C 0,0 UV-I 0,0 C 54 % 90 % 0 % 1020,6 hPa 0,0 l/m 0,0 km/h (0 Bft) 0 min 0,0 km/h (0 Bft)
04.08.2009 05:58 20,2 C 9,7 C 0,0 UV-I 0,0 C 54 % 90 % 0 % 1020,6 hPa 0,0 l/m 0,0 km/h (0 Bft) 0 min 0,0 km/h (0 Bft)
04.08.2009 06:00 20,2 C 9,7 C 0,0 UV-I 0,0 C 54 % 90 % 0 % 1020,6 hPa 0,0 l/m 0,0 km/h (0 Bft) 0 min 0,0 km/h (0 Bft)
04.08.2009 06:02 20,2 C 9,7 C 0,0 UV-I 0,0 C 55 % 90 % 0 % 1020,6 hPa 0,0 l/m 0,0 km/h (0 Bft) 0 min 0,0 km/h (0 Bft)
04.08.2009 06:04 20,2 C 9,7 C 0,0 UV-I 0,0 C 55 % 90 % 0 % 1020,6 hPa 0,0 l/m 0,0 km/h (0 Bft) 0 min 0,0 km/h (0 Bft)
04.08.2009 06:06 20,4 C 9,6 C 0,0 UV-I 0,0 C 55 % 90 % 0 % 1020,6 hPa 0,0 l/m 0,0 km/h (0 Bft) 0 min 0,0 km/h (0 Bft)
04.08.2009 06:08 20,4 C 9,7 C 0,0 UV-I 0,0 C 55 % 90 % 0 % 1020,6 hPa 0,0 l/m 0,0 km/h (0 Bft) 0 min 0,0 km/h (0 Bft)
04.08.2009 06:10 20,4 C 9,6 C 0,0 UV-I 0,0 C 55 % 90 % 0 % 1020,6 hPa 0,0 l/m 0,0 km/h (0 Bft) 0 min 0,0 km/h (0 Bft)
04.08.2009 06:12 20,2 C 9,6 C 0,0 UV-I 0,0 C 54 % 90 % 0 % 1020,6 hPa 0,0 l/m 0,0 km/h (0 Bft) 0 min 0,0 km/h (0 Bft)
04.08.2009 06:14 20,2 C 9,6 C 0,0 UV-I 0,0 C 54 % 90 % 0 % 1020,6 hPa 0,0 l/m 0,0 km/h (0 Bft) 0 min 0,0 km/h (0 Bft)
04.08.2009 06:16 20,2 C 9,6 C 0,0 UV-I 0,0 C 54 % 90 % 0 % 1020,6 hPa 0,0 l/m 0,0 km/h (0 Bft) 0 min 0,0 km/h (0 Bft)
04.08.2009 06:18 20,2 C 9,6 C 0,0 UV-I 0,0 C 54 % 90 % 0 % 1020,6 hPa 0,0 l/m 0,0 km/h (0 Bft) 0 min 0,0 km/h (0 Bft)
04.08.2009 06:20 20,3 C 9,7 C 0,0 UV-I 0,0 C 54 % 90 % 0 % 1020,6 hPa 0,0 l/m 0,0 km/h (0 Bft) 0 min 0,0 km/h (0 Bft)
04.08.2009 06:22 20,3 C 9,6 C 0,0 UV-I 0,0 C 54 % 90 % 0 % 1020,6 hPa 0,0 l/m 0,0 km/h (0 Bft) 0 min 0,0 km/h (0 Bft)
04.08.2009 06:24 20,3 C 9,6 C 0,0 UV-I 0,0 C 54 % 90 % 0 % 1020,6 hPa 0,0 l/m 0,0 km/h (0 Bft) 0 min 0,0 km/h (0 Bft)
04.08.2009 06:26 20,3 C 9,6 C 0,0 UV-I 0,0 C 54 % 90 % 0 % 1020,6 hPa 0,0 l/m 0,0 km/h (0 Bft) 0 min 0,0 km/h (0 Bft)
04.08.2009 06:28 20,3 C 9,6 C 0,0 UV-I 0,0 C 54 % 90 % 0 % 1020,6 hPa 0,0 l/m 0,0 km/h (0 Bft) 0 min 0,0 km/h (0 Bft)
04.08.2009 06:30 20,3 C 9,6 C 0,0 UV-I 0,0 C 54 % 90 % 0 % 1020,6 hPa 0,0 l/m 0,0 km/h (0 Bft) 0 min 0,0 km/h (0 Bft)
04.08.2009 06:32 20,3 C 9,6 C 0,1 UV-I 0,0 C 54 % 90 % 0 % 1020,6 hPa 0,0 l/m 0,0 km/h (0 Bft) 0 min 0,0 km/h (0 Bft)
04.08.2009 06:34 20,3 C 9,6 C 0,1 UV-I 0,0 C 54 % 90 % 0 % 1020,6 hPa 0,0 l/m 0,0 km/h (0 Bft) 0 min 0,0 km/h (0 Bft)
04.08.2009 06:36 20,3 C 9,6 C 0,1 UV-I 0,0 C 54 % 90 % 0 % 1020,7 hPa 0,0 l/m 0,0 km/h (0 Bft) 0 min 0,0 km/h (0 Bft)
04.08.2009 06:38 20,2 C 9,6 C 0,1 UV-I 0,0 C 54 % 90 % 0 % 1020,7 hPa 0,0 l/m 0,0 km/h (0 Bft) 0 min 0,0 km/h (0 Bft)
04.08.2009 06:40 20,2 C 9,6 C 0,1 UV-I 0,0 C 54 % 90 % 0 % 1020,7 hPa 0,0 l/m 0,0 km/h (0 Bft) 0 min 0,0 km/h (0 Bft)
04.08.2009 06:42 20,2 C 9,6 C 0,0 UV-I 0,0 C 54 % 90 % 0 % 1020,7 hPa 0,0 l/m 0,0 km/h (0 Bft) 0 min 0,0 km/h (0 Bft)
04.08.2009 06:44 20,2 C 9,5 C 0,0 UV-I 0,0 C 54 % 90 % 0 % 1020,7 hPa 0,0 l/m 0,0 km/h (0 Bft) 0 min 0,0 km/h (0 Bft)
04.08.2009 06:46 20,2 C 9,6 C 0,0 UV-I 0,0 C 54 % 90 % 0 % 1020,7 hPa 0,0 l/m 0,0 km/h (0 Bft) 0 min 0,0 km/h (0 Bft)
04.08.2009 06:48 20,2 C 9,6 C 0,0 UV-I 0,0 C 54 % 90 % 0 % 1020,7 hPa 0,0 l/m 0,0 km/h (0 Bft) 0 min 0,0 km/h (0 Bft)
04.08.2009 06:50 20,2 C 9,6 C 0,0 UV-I 0,0 C 54 % 91 % 0 % 1020,7 hPa 0,0 l/m 0,0 km/h (0 Bft) 0 min 0,0 km/h (0 Bft)
04.08.2009 06:52 20,2 C 9,5 C 0,2 UV-I 0,0 C 54 % 91 % 0 % 1020,7 hPa 0,0 l/m 0,0 km/h (0 Bft) 0 min 0,0 km/h (0 Bft)
04.08.2009 06:54 20,2 C 9,6 C 0,2 UV-I 0,0 C 54 % 91 % 0 % 1020,7 hPa 0,0 l/m 0,0 km/h (0 Bft) 0 min 0,0 km/h (0 Bft)
04.08.2009 06:56 20,2 C 9,6 C 0,2 UV-I 0,0 C 54 % 91 % 0 % 1020,9 hPa 0,0 l/m 0,0 km/h (0 Bft) 0 min 0,0 km/h (0 Bft)
04.08.2009 06:58 20,2 C 9,6 C 0,2 UV-I 0,0 C 54 % 91 % 0 % 1020,9 hPa 0,0 l/m 0,0 km/h (0 Bft) 0 min 0,0 km/h (0 Bft)
04.08.2009 07:00 20,2 C 9,7 C 0,2 UV-I 0,0 C 54 % 91 % 0 % 1020,9 hPa 0,0 l/m 0,0 km/h (0 Bft) 0 min 0,0 km/h (0 Bft)
04.08.2009 07:02 20,2 C 9,6 C 0,3 UV-I 0,0 C 54 % 91 % 0 % 1020,9 hPa 0,0 l/m 0,0 km/h (0 Bft) 0 min 0,0 km/h (0 Bft)
04.08.2009 07:04 20,2 C 9,6 C 0,3 UV-I 0,0 C 54 % 91 % 0 % 1020,9 hPa 0,0 l/m 0,0 km/h (0 Bft) 0 min 0,0 km/h (0 Bft)
04.08.2009 07:06 20,2 C 9,6 C 0,3 UV-I 0,0 C 54 % 91 % 0 % 1020,9 hPa 0,0 l/m 0,0 km/h (0 Bft) 0 min 0,0 km/h (0 Bft)
04.08.2009 07:08 20,2 C 9,6 C 0,3 UV-I 0,0 C 55 % 91 % 0 % 1020,9 hPa 0,0 l/m 0,0 km/h (0 Bft) 0 min 0,0 km/h (0 Bft)
04.08.2009 07:10 20,1 C 9,6 C 0,3 UV-I 0,0 C 55 % 91 % 0 % 1020,9 hPa 0,0 l/m 0,0 km/h (0 Bft) 0 min 0,0 km/h (0 Bft)
04.08.2009 07:12 20,2 C 9,6 C 0,4 UV-I 0,0 C 55 % 91 % 0 % 1020,9 hPa 0,0 l/m 0,0 km/h (0 Bft) 0 min 0,0 km/h (0 Bft)
04.08.2009 07:14 20,2 C 9,6 C 0,4 UV-I 0,0 C 55 % 91 % 0 % 1020,9 hPa 0,0 l/m 0,0 km/h (0 Bft) 0 min 0,0 km/h (0 Bft)
04.08.2009 07:16 20,1 C 9,7 C 0,4 UV-I 0,0 C 55 % 91 % 0 % 1021,1 hPa 0,0 l/m 0,0 km/h (0 Bft) 0 min 0,0 km/h (0 Bft)
04.08.2009 07:18 20,2 C 9,7 C 0,4 UV-I 0,0 C 55 % 91 % 0 % 1021,1 hPa 0,0 l/m 0,0 km/h (0 Bft) 0 min 0,0 km/h (0 Bft)
04.08.2009 07:20 20,1 C 9,7 C 0,4 UV-I 0,0 C 55 % 91 % 0 % 1021,1 hPa 0,0 l/m 0,0 km/h (0 Bft) 0 min 0,0 km/h (0 Bft)
04.08.2009 07:22 20,2 C 9,7 C 0,4 UV-I 0,0 C 55 % 91 % 0 % 1021,1 hPa 0,0 l/m 0,0 km/h (0 Bft) 0 min 0,0 km/h (0 Bft)
04.08.2009 07:24 20,1 C 9,9 C 0,4 UV-I 0,0 C 55 % 91 % 0 % 1021,1 hPa 0,0 l/m 0,0 km/h (0 Bft) 0 min 0,0 km/h (0 Bft)
04.08.2009 07:26 20,1 C 9,9 C 0,4 UV-I 0,0 C 55 % 92 % 0 % 1021,1 hPa 0,0 l/m 0,0 km/h (0 Bft) 0 min 0,0 km/h (0 Bft)
04.08.2009 07:28 20,2 C 9,9 C 0,5 UV-I 0,0 C 55 % 92 % 0 % 1021,1 hPa 0,0 l/m 0,0 km/h (0 Bft) 0 min 0,0 km/h (0 Bft)
04.08.2009 07:30 20,2 C 9,9 C 0,5 UV-I 0,1 C 55 % 92 % 3 % 1021,1 hPa 0,0 l/m 0,0 km/h (0 Bft) 0 min 0,0 km/h (0 Bft)
04.08.2009 07:32 20,1 C 10,0 C 0,5 UV-I 0,1 C 55 % 92 % 3 % 1021,1 hPa 0,0 l/m 0,0 km/h (0 Bft) 0 min 0,0 km/h (0 Bft)
04.08.2009 07:34 20,2 C 10,0 C 0,5 UV-I 0,1 C 55 % 92 % 3 % 1021,1 hPa 0,0 l/m 0,0 km/h (0 Bft) 0 min 0,0 km/h (0 Bft)
04.08.2009 07:36 20,2 C 10,0 C 0,5 UV-I 0,2 C 55 % 92 % 6 % 1020,9 hPa 0,0 l/m 0,0 km/h (0 Bft) 0 min 0,0 km/h (0 Bft)
04.08.2009 07:38 20,2 C 10,0 C 0,6 UV-I 0,2 C 55 % 92 % 6 % 1020,9 hPa 0,0 l/m 0,0 km/h (0 Bft) 0 min 0,0 km/h (0 Bft)
04.08.2009 07:40 20,1 C 10,1 C 0,6 UV-I 0,2 C 55 % 92 % 6 % 1020,9 hPa 0,0 l/m 0,0 km/h (0 Bft) 0 min 0,0 km/h (0 Bft)
04.08.2009 07:42 20,2 C 10,1 C 0,6 UV-I 0,3 C 55 % 92 % 9 % 1020,9 hPa 0,0 l/m 0,0 km/h (0 Bft) 0 min 0,0 km/h (0 Bft)
04.08.2009 07:44 20,1 C 10,2 C 0,6 UV-I 0,2 C 55 % 92 % 6 % 1020,9 hPa 0,0 l/m 0,0 km/h (0 Bft) 0 min 0,0 km/h (0 Bft)
04.08.2009 07:46 20,1 C 10,3 C 0,6 UV-I 0,3 C 55 % 92 % 9 % 1020,9 hPa 0,0 l/m 0,2 km/h (0 Bft) 0 min 3,1 km/h (1 Bft)
04.08.2009 07:48 20,2 C 10,3 C 0,6 UV-I 0,3 C 55 % 92 % 9 % 1020,9 hPa 0,0 l/m 0,2 km/h (0 Bft) 0 min 3,1 km/h (1 Bft)
04.08.2009 07:50 20,2 C 10,2 C 0,6 UV-I 0,6 C 55 % 92 % 17 % 1020,9 hPa 0,0 l/m 0,5 km/h (0 Bft) 0 min 2,4 km/h (1 Bft)
04.08.2009 07:52 20,1 C 10,3 C 0,7 UV-I 0,6 C 55 % 92 % 17 % 1020,9 hPa 0,0 l/m 1,0 km/h (0 Bft) 0 min 2,4 km/h (1 Bft)
04.08.2009 07:54 20,2 C 10,5 C 0,7 UV-I 0,5 C 55 % 92 % 14 % 1020,9 hPa 0,0 l/m 1,2 km/h (1 Bft) 0 min 2,6 km/h (1 Bft)
04.08.2009 07:56 20,2 C 10,4 C 0,7 UV-I 0,6 C 56 % 92 % 17 % 1020,8 hPa 0,0 l/m 1,2 km/h (1 Bft) 0 min 2,6 km/h (1 Bft)
04.08.2009 07:58 20,2 C 10,5 C 0,8 UV-I 0,7 C 56 % 92 % 20 % 1020,8 hPa 0,0 l/m 1,0 km/h (0 Bft) 0 min 2,4 km/h (1 Bft)
04.08.2009 08:00 20,1 C 10,5 C 0,8 UV-I 0,7 C 56 % 92 % 20 % 1020,8 hPa 0,0 l/m 1,0 km/h (0 Bft) 0 min 0,0 km/h (0 Bft)
04.08.2009 08:02 20,1 C 10,6 C 0,8 UV-I 0,7 C 56 % 92 % 20 % 1020,8 hPa 0,0 l/m 0,7 km/h (0 Bft) 0 min 4,1 km/h (1 Bft)
04.08.2009 08:04 20,2 C 10,7 C 0,8 UV-I 0,8 C 56 % 92 % 23 % 1020,8 hPa 0,0 l/m 0,5 km/h (0 Bft) 0 min 0,0 km/h (0 Bft)
04.08.2009 08:06 20,2 C 10,7 C 0,8 UV-I 0,8 C 56 % 92 % 23 % 1020,8 hPa 0,0 l/m 0,2 km/h (0 Bft) 0 min 0,0 km/h (0 Bft)
04.08.2009 08:08 20,2 C 10,8 C 0,8 UV-I 0,8 C 56 % 93 % 23 % 1020,8 hPa 0,0 l/m 0,0 km/h (0 Bft) 0 min 0,0 km/h (0 Bft)
04.08.2009 08:10 20,2 C 10,8 C 0,8 UV-I 0,8 C 56 % 92 % 23 % 1020,8 hPa 0,0 l/m 0,0 km/h (0 Bft) 0 min 0,0 km/h (0 Bft)
04.08.2009 08:12 20,2 C 10,8 C 1,0 UV-I 0,9 C 56 % 93 % 26 % 1020,8 hPa 0,0 l/m 0,0 km/h (0 Bft) 0 min 0,0 km/h (0 Bft)
04.08.2009 08:14 20,2 C 10,9 C 1,0 UV-I 0,9 C 56 % 92 % 26 % 1020,8 hPa 0,0 l/m 0,0 km/h (0 Bft) 0 min 0,0 km/h (0 Bft)
04.08.2009 08:16 20,2 C 11,1 C 1,0 UV-I 0,7 C 56 % 93 % 20 % 1021,1 hPa 0,0 l/m 0,0 km/h (0 Bft) 0 min 0,0 km/h (0 Bft)
04.08.2009 08:18 20,2 C 11,0 C 1,1 UV-I 0,8 C 56 % 93 % 23 % 1021,1 hPa 0,0 l/m 0,0 km/h (0 Bft) 0 min 2,4 km/h (1 Bft)
04.08.2009 08:20 20,2 C 11,0 C 1,1 UV-I 1,0 C 56 % 93 % 29 % 1021,1 hPa 0,0 l/m 0,0 km/h (0 Bft) 0 min 2,4 km/h (1 Bft)
04.08.2009 08:22 20,2 C 11,2 C 1,1 UV-I 0,9 C 56 % 93 % 26 % 1021,1 hPa 0,0 l/m 0,0 km/h (0 Bft) 0 min 0,0 km/h (0 Bft)
04.08.2009 08:24 20,2 C 11,2 C 1,1 UV-I 1,1 C 56 % 93 % 31 % 1021,1 hPa 0,0 l/m 0,0 km/h (0 Bft) 0 min 0,0 km/h (0 Bft)
04.08.2009 08:26 20,2 C 11,3 C 1,1 UV-I 1,0 C 56 % 93 % 29 % 1021,1 hPa 0,0 l/m 0,0 km/h (0 Bft) 0 min 0,0 km/h (0 Bft)
04.08.2009 08:28 20,3 C 11,4 C 1,2 UV-I 1,0 C 56 % 93 % 29 % 1021,1 hPa 0,0 l/m 0,0 km/h (0 Bft) 0 min 0,0 km/h (0 Bft)
04.08.2009 08:30 20,3 C 11,5 C 1,2 UV-I 1,0 C 56 % 93 % 29 % 1021,1 hPa 0,0 l/m 0,0 km/h (0 Bft) 0 min 0,0 km/h (0 Bft)
04.08.2009 08:32 20,3 C 11,6 C 1,2 UV-I 1,0 C 56 % 93 % 29 % 1021,1 hPa 0,0 l/m 0,0 km/h (0 Bft) 0 min 0,0 km/h (0 Bft)
04.08.2009 08:34 20,3 C 11,6 C 1,2 UV-I 1,1 C 57 % 92 % 31 % 1021,1 hPa 0,0 l/m 0,0 km/h (0 Bft) 0 min 0,0 km/h (0 Bft)
04.08.2009 08:36 20,2 C 11,8 C 1,2 UV-I 0,9 C 56 % 92 % 26 % 1021,3 hPa 0,0 l/m 0,0 km/h (0 Bft) 0 min 0,0 km/h (0 Bft)
04.08.2009 08:38 20,4 C 11,8 C 1,3 UV-I 1,0 C 57 % 92 % 29 % 1021,3 hPa 0,0 l/m 0,0 km/h (0 Bft) 0 min 0,0 km/h (0 Bft)
04.08.2009 08:40 20,2 C 11,8 C 1,3 UV-I 1,1 C 57 % 92 % 31 % 1021,3 hPa 0,0 l/m 0,0 km/h (0 Bft) 0 min 0,0 km/h (0 Bft)
04.08.2009 08:42 20,4 C 11,9 C 1,3 UV-I 1,0 C 57 % 92 % 29 % 1021,3 hPa 0,0 l/m 0,0 km/h (0 Bft) 0 min 0,0 km/h (0 Bft)
04.08.2009 08:44 20,4 C 12,0 C 1,3 UV-I 1,1 C 57 % 92 % 31 % 1021,3 hPa 0,0 l/m 0,0 km/h (0 Bft) 0 min 0,0 km/h (0 Bft)
04.08.2009 08:46 20,4 C 12,0 C 1,3 UV-I 1,2 C 57 % 92 % 34 % 1021,3 hPa 0,0 l/m 0,2 km/h (0 Bft) 0 min 3,6 km/h (1 Bft)
04.08.2009 08:48 20,4 C 12,1 C 1,3 UV-I 1,2 C 57 % 92 % 34 % 1021,3 hPa 0,0 l/m 0,2 km/h (0 Bft) 0 min 3,6 km/h (1 Bft)
04.08.2009 08:50 20,4 C 12,3 C 1,3 UV-I 1,1 C 57 % 93 % 31 % 1021,3 hPa 0,0 l/m 0,2 km/h (0 Bft) 0 min 0,0 km/h (0 Bft)
04.08.2009 08:52 20,4 C 12,3 C 1,4 UV-I 1,2 C 57 % 92 % 34 % 1021,3 hPa 0,0 l/m 0,2 km/h (0 Bft) 0 min 0,0 km/h (0 Bft)
04.08.2009 08:54 20,4 C 12,4 C 1,4 UV-I 1,2 C 57 % 92 % 34 % 1021,3 hPa 0,0 l/m 0,2 km/h (0 Bft) 0 min 0,0 km/h (0 Bft)
04.08.2009 08:56 20,5 C 12,4 C 1,4 UV-I 1,3 C 57 % 92 % 37 % 1021,6 hPa 0,0 l/m 0,2 km/h (0 Bft) 0 min 0,0 km/h (0 Bft)
04.08.2009 08:58 20,4 C 12,5 C 1,5 UV-I 1,3 C 57 % 92 % 37 % 1021,6 hPa 0,0 l/m 0,0 km/h (0 Bft) 0 min 0,0 km/h (0 Bft)
04.08.2009 09:00 20,5 C 12,5 C 1,5 UV-I 1,5 C 57 % 92 % 43 % 1021,6 hPa 0,0 l/m 0,0 km/h (0 Bft) 0 min 0,0 km/h (0 Bft)
04.08.2009 09:02 20,5 C 12,6 C 1,5 UV-I 1,4 C 57 % 92 % 40 % 1021,6 hPa 0,0 l/m 0,0 km/h (0 Bft) 0 min 0,0 km/h (0 Bft)
04.08.2009 09:04 20,5 C 12,7 C 1,5 UV-I 1,4 C 57 % 92 % 40 % 1021,6 hPa 0,0 l/m 0,0 km/h (0 Bft) 0 min 0,0 km/h (0 Bft)
04.08.2009 09:06 20,5 C 12,8 C 1,5 UV-I 1,4 C 57 % 92 % 40 % 1021,6 hPa 0,0 l/m 0,0 km/h (0 Bft) 0 min 0,0 km/h (0 Bft)
04.08.2009 09:08 20,5 C 12,9 C 1,4 UV-I 1,4 C 57 % 92 % 40 % 1021,6 hPa 0,0 l/m 0,0 km/h (0 Bft) 0 min 0,0 km/h (0 Bft)
04.08.2009 09:10 20,6 C 13,0 C 1,4 UV-I 1,4 C 57 % 91 % 40 % 1021,6 hPa 0,0 l/m 0,0 km/h (0 Bft) 0 min 0,0 km/h (0 Bft)
04.08.2009 09:12 20,6 C 13,1 C 1,5 UV-I 1,4 C 57 % 91 % 40 % 1021,6 hPa 0,0 l/m 0,0 km/h (0 Bft) 0 min 0,0 km/h (0 Bft)
04.08.2009 09:14 20,6 C 13,3 C 1,5 UV-I 1,3 C 57 % 91 % 37 % 1021,6 hPa 0,0 l/m 0,0 km/h (0 Bft) 0 min 0,0 km/h (0 Bft)
04.08.2009 09:16 20,6 C 13,2 C 1,5 UV-I 1,6 C 57 % 91 % 46 % 1021,6 hPa 0,0 l/m 0,0 km/h (0 Bft) 0 min 0,0 km/h (0 Bft)
04.08.2009 09:18 20,6 C 13,4 C 1,5 UV-I 1,5 C 57 % 91 % 43 % 1021,6 hPa 0,0 l/m 0,0 km/h (0 Bft) 0 min 0,0 km/h (0 Bft)
04.08.2009 09:20 20,6 C 13,5 C 1,5 UV-I 1,5 C 57 % 91 % 43 % 1021,6 hPa 0,0 l/m 0,0 km/h (0 Bft) 0 min 0,0 km/h (0 Bft)
04.08.2009 09:22 20,6 C 13,6 C 1,6 UV-I 1,5 C 57 % 91 % 43 % 1021,6 hPa 0,0 l/m 0,0 km/h (0 Bft) 0 min 0,0 km/h (0 Bft)
04.08.2009 09:24 20,6 C 13,6 C 1,6 UV-I 1,6 C 57 % 90 % 46 % 1021,6 hPa 0,0 l/m 0,0 km/h (0 Bft) 0 min 0,0 km/h (0 Bft)
04.08.2009 09:26 20,6 C 13,7 C 1,6 UV-I 1,6 C 57 % 90 % 46 % 1021,6 hPa 0,0 l/m 0,0 km/h (0 Bft) 0 min 0,0 km/h (0 Bft)
04.08.2009 09:28 20,7 C 13,8 C 1,7 UV-I 1,7 C 57 % 90 % 49 % 1021,6 hPa 0,0 l/m 0,0 km/h (0 Bft) 0 min 0,0 km/h (0 Bft)
04.08.2009 09:30 20,7 C 13,9 C 1,7 UV-I 1,7 C 57 % 90 % 49 % 1021,6 hPa 0,0 l/m 0,0 km/h (0 Bft) 0 min 0,0 km/h (0 Bft)
04.08.2009 09:32 20,7 C 14,0 C 1,7 UV-I 1,7 C 57 % 90 % 49 % 1021,6 hPa 0,0 l/m 0,0 km/h (0 Bft) 0 min 0,0 km/h (0 Bft)
04.08.2009 09:34 20,7 C 14,0 C 1,7 UV-I 1,8 C 57 % 90 % 51 % 1021,6 hPa 0,0 l/m 0,0 km/h (0 Bft) 0 min 0,0 km/h (0 Bft)
04.08.2009 09:36 20,7 C 14,1 C 1,7 UV-I 1,9 C 57 % 89 % 54 % 1021,8 hPa 0,0 l/m 0,2 km/h (0 Bft) 0 min 0,0 km/h (0 Bft)
04.08.2009 09:38 20,7 C 14,3 C 1,7 UV-I 1,8 C 57 % 89 % 51 % 1021,8 hPa 0,0 l/m 0,5 km/h (0 Bft) 0 min 3,4 km/h (1 Bft)
04.08.2009 09:40 20,8 C 14,3 C 1,7 UV-I 1,9 C 57 % 89 % 54 % 1021,8 hPa 0,0 l/m 0,5 km/h (0 Bft) 0 min 3,4 km/h (1 Bft)
04.08.2009 09:42 20,8 C 14,4 C 1,8 UV-I 2,0 C 57 % 89 % 57 % 1021,8 hPa 0,0 l/m 0,5 km/h (0 Bft) 0 min 5,1 km/h (1 Bft)
04.08.2009 09:44 20,8 C 14,6 C 1,8 UV-I 2,0 C 57 % 89 % 57 % 1021,8 hPa 0,0 l/m 0,5 km/h (0 Bft) 0 min 0,0 km/h (0 Bft)
04.08.2009 09:46 20,8 C 14,7 C 1,8 UV-I 1,9 C 57 % 89 % 54 % 1021,8 hPa 0,0 l/m 0,5 km/h (0 Bft) 0 min 0,0 km/h (0 Bft)
04.08.2009 09:48 20,8 C 14,7 C 1,9 UV-I 2,1 C 57 % 88 % 60 % 1021,8 hPa 0,0 l/m 0,5 km/h (0 Bft) 0 min 0,0 km/h (0 Bft)
04.08.2009 09:50 20,8 C 14,7 C 1,9 UV-I 2,4 C 57 % 88 % 69 % 1021,8 hPa 0,0 l/m 0,2 km/h (0 Bft) 0 min 0,0 km/h (0 Bft)
04.08.2009 09:52 20,8 C 14,9 C 2,0 UV-I 3,2 C 57 % 88 % 91 % 1021,8 hPa 0,0 l/m 0,2 km/h (0 Bft) 2 min 2,4 km/h (1 Bft)
04.08.2009 09:54 20,8 C 15,0 C 2,0 UV-I 4,5 C 57 % 88 % 100 % 1021,8 hPa 0,0 l/m 0,2 km/h (0 Bft) 2 min 2,4 km/h (1 Bft)
04.08.2009 09:56 20,8 C 15,1 C 2,0 UV-I 5,3 C 57 % 87 % 100 % 1021,8 hPa 0,0 l/m 0,5 km/h (0 Bft) 2 min 0,0 km/h (0 Bft)
04.08.2009 09:58 20,8 C 15,2 C 2,0 UV-I 6,3 C 57 % 87 % 100 % 1021,8 hPa 0,0 l/m 0,5 km/h (0 Bft) 2 min 0,0 km/h (0 Bft)
04.08.2009 10:00 20,8 C 15,3 C 2,0 UV-I 7,2 C 57 % 87 % 100 % 1021,8 hPa 0,0 l/m 0,7 km/h (0 Bft) 2 min 4,3 km/h (1 Bft)
04.08.2009 10:02 20,9 C 15,3 C 2,0 UV-I 7,6 C 57 % 86 % 100 % 1021,8 hPa 0,0 l/m 1,0 km/h (0 Bft) 2 min 4,3 km/h (1 Bft)
04.08.2009 10:04 20,9 C 15,4 C 2,0 UV-I 8,0 C 57 % 86 % 100 % 1021,8 hPa 0,0 l/m 1,0 km/h (0 Bft) 2 min 0,0 km/h (0 Bft)
04.08.2009 10:06 20,9 C 15,6 C 2,0 UV-I 8,2 C 57 % 85 % 100 % 1021,8 hPa 0,0 l/m 1,0 km/h (0 Bft) 2 min 0,0 km/h (0 Bft)
04.08.2009 10:08 20,9 C 15,7 C 2,7 UV-I 8,4 C 58 % 85 % 100 % 1021,8 hPa 0,0 l/m 1,0 km/h (0 Bft) 2 min 0,0 km/h (0 Bft)
04.08.2009 10:10 20,9 C 15,9 C 2,7 UV-I 8,8 C 58 % 85 % 100 % 1021,8 hPa 0,0 l/m 1,0 km/h (0 Bft) 2 min 0,0 km/h (0 Bft)
04.08.2009 10:12 20,9 C 16,1 C 3,3 UV-I 9,2 C 57 % 84 % 100 % 1021,8 hPa 0,0 l/m 0,5 km/h (0 Bft) 2 min 2,9 km/h (1 Bft)
04.08.2009 10:14 20,9 C 16,3 C 3,3 UV-I 9,2 C 57 % 83 % 100 % 1021,8 hPa 0,0 l/m 0,7 km/h (0 Bft) 2 min 3,8 km/h (1 Bft)
04.08.2009 10:16 20,9 C 16,4 C 3,3 UV-I 9,2 C 57 % 83 % 100 % 1021,8 hPa 0,0 l/m 0,7 km/h (0 Bft) 2 min 3,8 km/h (1 Bft)
04.08.2009 10:18 20,9 C 16,7 C 2,9 UV-I 8,9 C 57 % 82 % 100 % 1021,8 hPa 0,0 l/m 1,0 km/h (0 Bft) 2 min 0,0 km/h (0 Bft)
04.08.2009 10:20 21,0 C 16,9 C 2,9 UV-I 8,9 C 57 % 80 % 100 % 1021,8 hPa 0,0 l/m 1,0 km/h (0 Bft) 2 min 0,0 km/h (0 Bft)
04.08.2009 10:22 20,9 C 17,0 C 4,4 UV-I 9,1 C 57 % 80 % 100 % 1021,8 hPa 0,0 l/m 1,0 km/h (0 Bft) 2 min 0,0 km/h (0 Bft)
04.08.2009 10:24 21,0 C 17,2 C 4,4 UV-I 9,2 C 57 % 80 % 100 % 1021,8 hPa 0,0 l/m 0,7 km/h (0 Bft) 2 min 0,0 km/h (0 Bft)
04.08.2009 10:26 21,0 C 17,4 C 4,4 UV-I 9,4 C 57 % 79 % 100 % 1021,8 hPa 0,0 l/m 0,5 km/h (0 Bft) 2 min 4,1 km/h (1 Bft)
04.08.2009 10:28 21,0 C 17,6 C 7,8 UV-I 9,4 C 57 % 79 % 100 % 1021,8 hPa 0,0 l/m 0,5 km/h (0 Bft) 2 min 4,1 km/h (1 Bft)
04.08.2009 10:30 21,0 C 17,8 C 7,8 UV-I 9,1 C 57 % 78 % 100 % 1021,8 hPa 0,0 l/m 0,5 km/h (0 Bft) 2 min 3,4 km/h (1 Bft)
04.08.2009 10:32 21,0 C 17,9 C 12,1 UV-I 9,1 C 57 % 77 % 100 % 1021,8 hPa 0,0 l/m 0,7 km/h (0 Bft) 2 min 5,5 km/h (1 Bft)
04.08.2009 10:34 21,0 C 18,1 C 12,1 UV-I 9,0 C 57 % 76 % 100 % 1021,8 hPa 0,0 l/m 0,7 km/h (0 Bft) 2 min 5,5 km/h (1 Bft)
04.08.2009 10:36 21,0 C 18,3 C 12,1 UV-I 9,0 C 57 % 76 % 100 % 1021,8 hPa 0,0 l/m 0,7 km/h (0 Bft) 2 min 0,0 km/h (0 Bft)
04.08.2009 10:38 21,1 C 18,5 C 13,5 UV-I 9,0 C 57 % 74 % 100 % 1021,8 hPa 0,0 l/m 1,0 km/h (0 Bft) 2 min 0,0 km/h (0 Bft)
04.08.2009 10:40 21,1 C 18,7 C 13,5 UV-I 8,8 C 57 % 72 % 100 % 1021,8 hPa 0,0 l/m 1,0 km/h (0 Bft) 2 min 0,0 km/h (0 Bft)
04.08.2009 10:42 21,1 C 18,7 C 13,7 UV-I 9,2 C 57 % 72 % 100 % 1021,8 hPa 0,0 l/m 0,7 km/h (0 Bft) 2 min 6,3 km/h (2 Bft)
04.08.2009 10:44 21,1 C 18,8 C 13,7 UV-I 9,1 C 57 % 71 % 100 % 1021,8 hPa 0,0 l/m 0,7 km/h (0 Bft) 2 min 3,6 km/h (1 Bft)
04.08.2009 10:46 21,1 C 19,0 C 13,7 UV-I 8,8 C 57 % 71 % 100 % 1021,8 hPa 0,0 l/m 1,2 km/h (1 Bft) 2 min 3,6 km/h (1 Bft)
04.08.2009 10:48 21,1 C 19,2 C 13,7 UV-I 8,5 C 57 % 70 % 100 % 1021,8 hPa 0,0 l/m 1,0 km/h (0 Bft) 2 min 2,6 km/h (1 Bft)
04.08.2009 10:50 21,1 C 19,3 C 13,7 UV-I 8,5 C 57 % 69 % 100 % 1021,8 hPa 0,0 l/m 0,7 km/h (0 Bft) 2 min 0,0 km/h (0 Bft)
04.08.2009 10:52 21,1 C 19,5 C 13,7 UV-I 8,3 C 57 % 69 % 100 % 1021,8 hPa 0,0 l/m 0,7 km/h (0 Bft) 2 min 0,0 km/h (0 Bft)
04.08.2009 10:54 21,1 C 19,5 C 13,7 UV-I 8,7 C 57 % 67 % 100 % 1021,8 hPa 0,0 l/m 0,7 km/h (0 Bft) 2 min 4,1 km/h (1 Bft)
04.08.2009 10:56 21,2 C 19,7 C 13,7 UV-I 8,5 C 57 % 67 % 100 % 1021,9 hPa 0,0 l/m 1,0 km/h (0 Bft) 2 min 4,8 km/h (1 Bft)
04.08.2009 10:58 21,2 C 19,8 C 13,8 UV-I 8,2 C 56 % 64 % 100 % 1021,9 hPa 0,0 l/m 1,0 km/h (0 Bft) 2 min 4,8 km/h (1 Bft)
04.08.2009 11:00 21,2 C 19,9 C 13,8 UV-I 8,1 C 56 % 64 % 100 % 1021,9 hPa 0,0 l/m 1,0 km/h (0 Bft) 2 min 3,6 km/h (1 Bft)
04.08.2009 11:02 21,2 C 20,0 C 13,8 UV-I 8,0 C 56 % 65 % 100 % 1021,9 hPa 0,0 l/m 1,2 km/h (1 Bft) 2 min 5,1 km/h (1 Bft)
04.08.2009 11:04 21,2 C 20,3 C 13,8 UV-I 7,7 C 56 % 64 % 100 % 1021,9 hPa 0,0 l/m 1,4 km/h (1 Bft) 2 min 5,1 km/h (1 Bft)
04.08.2009 11:06 21,2 C 20,4 C 13,8 UV-I 7,7 C 56 % 63 % 100 % 1021,9 hPa 0,0 l/m 1,2 km/h (1 Bft) 2 min 0,0 km/h (0 Bft)
04.08.2009 11:08 21,2 C 20,4 C 13,6 UV-I 8,1 C 56 % 63 % 100 % 1021,9 hPa 0,0 l/m 0,7 km/h (0 Bft) 2 min 0,0 km/h (0 Bft)
04.08.2009 11:10 21,2 C 20,7 C 13,6 UV-I 8,1 C 56 % 62 % 100 % 1021,9 hPa 0,0 l/m 0,7 km/h (0 Bft) 2 min 0,0 km/h (0 Bft)
04.08.2009 11:12 21,3 C 20,6 C 13,8 UV-I 8,6 C 56 % 60 % 100 % 1021,9 hPa 0,0 l/m 0,7 km/h (0 Bft) 2 min 3,4 km/h (1 Bft)
04.08.2009 11:14 21,3 C 20,8 C 13,8 UV-I 8,3 C 56 % 59 % 100 % 1021,9 hPa 0,0 l/m 0,7 km/h (0 Bft) 2 min 7,5 km/h (2 Bft)
04.08.2009 11:16 21,2 C 20,9 C 13,8 UV-I 7,9 C 56 % 59 % 100 % 1022,1 hPa 0,0 l/m 1,0 km/h (0 Bft) 2 min 7,5 km/h (2 Bft)
04.08.2009 11:18 21,2 C 21,1 C 13,6 UV-I 7,6 C 56 % 58 % 100 % 1022,1 hPa 0,0 l/m 1,2 km/h (1 Bft) 2 min 2,4 km/h (1 Bft)
04.08.2009 11:20 21,4 C 21,1 C 13,6 UV-I 7,6 C 56 % 57 % 100 % 1022,1 hPa 0,0 l/m 1,2 km/h (1 Bft) 2 min 0,0 km/h (0 Bft)
04.08.2009 11:22 21,2 C 21,2 C 13,1 UV-I 7,9 C 56 % 59 % 100 % 1022,1 hPa 0,0 l/m 1,2 km/h (1 Bft) 2 min 7,5 km/h (2 Bft)
04.08.2009 11:24 21,4 C 21,5 C 13,1 UV-I 7,7 C 56 % 58 % 100 % 1022,1 hPa 0,0 l/m 1,0 km/h (0 Bft) 2 min 0,0 km/h (0 Bft)
04.08.2009 11:26 21,4 C 21,6 C 13,1 UV-I 7,7 C 56 % 58 % 100 % 1022,1 hPa 0,0 l/m 0,2 km/h (0 Bft) 2 min 0,0 km/h (0 Bft)
04.08.2009 11:28 21,4 C 21,7 C 13,2 UV-I 7,8 C 56 % 56 % 100 % 1022,1 hPa 0,0 l/m 0,2 km/h (0 Bft) 2 min 2,6 km/h (1 Bft)
04.08.2009 11:30 21,4 C 21,9 C 13,2 UV-I 7,5 C 56 % 55 % 100 % 1022,1 hPa 0,0 l/m 0,5 km/h (0 Bft) 2 min 5,8 km/h (2 Bft)
04.08.2009 11:32 21,4 C 21,9 C 13,2 UV-I 7,3 C 56 % 55 % 100 % 1022,1 hPa 0,0 l/m 0,7 km/h (0 Bft) 2 min 5,8 km/h (2 Bft)
04.08.2009 11:34 21,4 C 22,0 C 13,2 UV-I 7,2 C 56 % 55 % 100 % 1022,1 hPa 0,0 l/m 1,0 km/h (0 Bft) 2 min 0,0 km/h (0 Bft)
04.08.2009 11:36 21,4 C 22,1 C 13,2 UV-I 7,0 C 56 % 55 % 100 % 1022,1 hPa 0,0 l/m 1,0 km/h (0 Bft) 2 min 0,0 km/h (0 Bft)
04.08.2009 11:38 21,4 C 22,3 C 13,3 UV-I 6,8 C 56 % 55 % 100 % 1022,1 hPa 0,0 l/m 0,7 km/h (0 Bft) 2 min 0,0 km/h (0 Bft)
04.08.2009 11:40 21,5 C 22,4 C 13,3 UV-I 6,6 C 56 % 55 % 100 % 1022,1 hPa 0,0 l/m 0,7 km/h (0 Bft) 2 min 0,0 km/h (0 Bft)
04.08.2009 11:42 21,5 C 22,5 C 13,1 UV-I 6,6 C 56 % 52 % 100 % 1022,1 hPa 0,0 l/m 0,5 km/h (0 Bft) 2 min 0,0 km/h (0 Bft)
04.08.2009 11:44 21,5 C 22,7 C 13,1 UV-I 6,3 C 56 % 51 % 100 % 1022,1 hPa 0,0 l/m 0,7 km/h (0 Bft) 2 min 3,8 km/h (1 Bft)
04.08.2009 11:46 21,5 C 22,6 C 13,1 UV-I 6,5 C 55 % 51 % 100 % 1022,1 hPa 0,0 l/m 1,0 km/h (0 Bft) 2 min 3,8 km/h (1 Bft)
04.08.2009 11:48 21,5 C 22,7 C 13,1 UV-I 6,5 C 55 % 52 % 100 % 1022,1 hPa 0,0 l/m 1,2 km/h (1 Bft) 2 min 2,4 km/h (1 Bft)
04.08.2009 11:50 21,6 C 22,8 C 13,1 UV-I 6,3 C 55 % 53 % 100 % 1022,1 hPa 0,0 l/m 1,4 km/h (1 Bft) 2 min 3,8 km/h (1 Bft)
04.08.2009 11:52 21,6 C 22,9 C 12,2 UV-I 6,1 C 55 % 53 % 100 % 1022,1 hPa 0,0 l/m 1,7 km/h (1 Bft) 2 min 3,8 km/h (1 Bft)
04.08.2009 11:54 21,6 C 23,1 C 12,2 UV-I 5,9 C 55 % 53 % 100 % 1022,1 hPa 0,0 l/m 1,7 km/h (1 Bft) 2 min 3,1 km/h (1 Bft)
04.08.2009 11:56 21,6 C 23,1 C 12,2 UV-I 6,0 C 55 % 51 % 100 % 1022,2 hPa 0,0 l/m 1,0 km/h (0 Bft) 2 min 3,1 km/h (1 Bft)
04.08.2009 11:58 21,6 C 23,2 C 12,1 UV-I 6,1 C 55 % 51 % 100 % 1022,2 hPa 0,0 l/m 1,0 km/h (0 Bft) 2 min 0,0 km/h (0 Bft)
04.08.2009 12:00 21,6 C 23,3 C 12,1 UV-I 6,3 C 55 % 52 % 100 % 1022,2 hPa 0,0 l/m 0,7 km/h (0 Bft) 2 min 0,0 km/h (0 Bft)
04.08.2009 12:02 21,6 C 23,4 C 11,8 UV-I 6,4 C 55 % 50 % 100 % 1022,2 hPa 0,0 l/m 0,5 km/h (0 Bft) 2 min 0,0 km/h (0 Bft)
04.08.2009 12:04 21,6 C 23,4 C 11,8 UV-I 6,8 C 55 % 48 % 100 % 1022,2 hPa 0,0 l/m 0,7 km/h (0 Bft) 2 min 4,1 km/h (1 Bft)
04.08.2009 12:06 21,6 C 23,4 C 11,8 UV-I 6,9 C 55 % 47 % 100 % 1022,2 hPa 0,0 l/m 1,2 km/h (1 Bft) 2 min 4,6 km/h (1 Bft)
04.08.2009 12:08 21,6 C 23,4 C 11,1 UV-I 6,8 C 55 % 48 % 100 % 1022,2 hPa 0,0 l/m 1,2 km/h (1 Bft) 2 min 4,6 km/h (1 Bft)
04.08.2009 12:10 21,6 C 23,4 C 11,1 UV-I 6,7 C 55 % 47 % 100 % 1022,2 hPa 0,0 l/m 1,7 km/h (1 Bft) 2 min 5,8 km/h (2 Bft)
04.08.2009 12:12 21,6 C 23,5 C 10,0 UV-I 6,5 C 55 % 46 % 100 % 1022,2 hPa 0,0 l/m 1,9 km/h (1 Bft) 2 min 5,8 km/h (2 Bft)
04.08.2009 12:14 21,7 C 23,5 C 10,0 UV-I 6,5 C 55 % 46 % 100 % 1022,2 hPa 0,0 l/m 1,7 km/h (1 Bft) 2 min 4,3 km/h (1 Bft)
04.08.2009 12:16 21,7 C 23,6 C 10,0 UV-I 6,5 C 55 % 45 % 100 % 1022,0 hPa 0,0 l/m 1,9 km/h (1 Bft) 2 min 5,3 km/h (1 Bft)
04.08.2009 12:18 21,7 C 23,6 C 9,6 UV-I 6,4 C 55 % 45 % 100 % 1022,0 hPa 0,0 l/m 1,4 km/h (1 Bft) 2 min 5,3 km/h (1 Bft)
04.08.2009 12:20 21,7 C 23,7 C 9,6 UV-I 6,3 C 55 % 45 % 100 % 1022,0 hPa 0,0 l/m 1,9 km/h (1 Bft) 2 min 4,3 km/h (1 Bft)
04.08.2009 12:22 21,7 C 23,8 C 9,1 UV-I 6,0 C 55 % 46 % 100 % 1022,0 hPa 0,0 l/m 1,7 km/h (1 Bft) 2 min 8,4 km/h (2 Bft)
04.08.2009 12:24 21,8 C 24,0 C 9,1 UV-I 6,0 C 55 % 47 % 100 % 1022,0 hPa 0,0 l/m 1,7 km/h (1 Bft) 2 min 3,6 km/h (1 Bft)
04.08.2009 12:26 21,8 C 24,0 C 9,1 UV-I 6,2 C 55 % 45 % 100 % 1022,0 hPa 0,0 l/m 1,9 km/h (1 Bft) 2 min 4,1 km/h (1 Bft)
04.08.2009 12:28 21,8 C 24,1 C 8,7 UV-I 6,4 C 55 % 45 % 100 % 1022,0 hPa 0,0 l/m 1,2 km/h (1 Bft) 2 min 4,1 km/h (1 Bft)
04.08.2009 12:30 21,8 C 24,1 C 8,7 UV-I 6,6 C 55 % 46 % 100 % 1022,0 hPa 0,0 l/m 1,2 km/h (1 Bft) 2 min 2,6 km/h (1 Bft)
04.08.2009 12:32 21,8 C 24,3 C 8,7 UV-I 6,7 C 55 % 45 % 100 % 1022,0 hPa 0,0 l/m 1,0 km/h (0 Bft) 2 min 4,3 km/h (1 Bft)
04.08.2009 12:34 21,8 C 24,3 C 8,7 UV-I 6,7 C 55 % 42 % 100 % 1022,0 hPa 0,0 l/m 1,7 km/h (1 Bft) 2 min 4,3 km/h (1 Bft)
04.08.2009 12:36 21,8 C 24,1 C 8,7 UV-I 6,7 C 55 % 43 % 100 % 1022,4 hPa 0,0 l/m 1,9 km/h (1 Bft) 2 min 5,1 km/h (1 Bft)
04.08.2009 12:38 21,8 C 24,2 C 8,4 UV-I 6,5 C 55 % 41 % 100 % 1022,4 hPa 0,0 l/m 2,6 km/h (1 Bft) 2 min 11,5 km/h (2 Bft)
04.08.2009 12:40 21,8 C 24,2 C 8,4 UV-I 6,2 C 55 % 43 % 100 % 1022,4 hPa 0,0 l/m 3,1 km/h (1 Bft) 2 min 11,5 km/h (2 Bft)
04.08.2009 12:42 21,9 C 24,2 C 8,1 UV-I 6,1 C 55 % 43 % 100 % 1022,4 hPa 0,0 l/m 3,1 km/h (1 Bft) 2 min 12,8 km/h (3 Bft)
04.08.2009 12:44 21,9 C 24,2 C 8,1 UV-I 6,1 C 55 % 44 % 100 % 1022,4 hPa 0,0 l/m 2,9 km/h (1 Bft) 2 min 2,9 km/h (1 Bft)
04.08.2009 12:46 21,9 C 24,3 C 8,1 UV-I 6,2 C 55 % 43 % 100 % 1022,4 hPa 0,0 l/m 2,6 km/h (1 Bft) 2 min 2,9 km/h (1 Bft)
04.08.2009 12:48 21,9 C 24,3 C 8,1 UV-I 6,3 C 54 % 44 % 100 % 1022,4 hPa 0,0 l/m 2,4 km/h (1 Bft) 2 min 0,0 km/h (0 Bft)
04.08.2009 12:50 21,9 C 24,4 C 8,1 UV-I 6,5 C 54 % 44 % 100 % 1022,4 hPa 0,0 l/m 1,2 km/h (1 Bft) 2 min 0,0 km/h (0 Bft)
04.08.2009 12:52 22,0 C 24,7 C 8,0 UV-I 6,5 C 54 % 45 % 100 % 1022,4 hPa 0,0 l/m 0,7 km/h (0 Bft) 2 min 0,0 km/h (0 Bft)
04.08.2009 12:54 22,0 C 24,8 C 8,0 UV-I 6,7 C 54 % 44 % 100 % 1022,4 hPa 0,0 l/m 0,5 km/h (0 Bft) 2 min 0,0 km/h (0 Bft)
04.08.2009 12:56 22,0 C 24,9 C 8,0 UV-I 6,3 C 54 % 43 % 100 % 1022,3 hPa 0,0 l/m 1,0 km/h (0 Bft) 2 min 7,5 km/h (2 Bft)
04.08.2009 12:58 22,0 C 24,8 C 7,3 UV-I 6,2 C 54 % 40 % 100 % 1022,3 hPa 0,0 l/m 1,9 km/h (1 Bft) 2 min 7,5 km/h (2 Bft)
04.08.2009 13:00 22,0 C 24,8 C 7,3 UV-I 5,7 C 54 % 41 % 100 % 1022,3 hPa 0,0 l/m 3,1 km/h (1 Bft) 2 min 7,2 km/h (2 Bft)
04.08.2009 13:02 22,0 C 24,7 C 7,4 UV-I 5,5 C 54 % 42 % 100 % 1022,3 hPa 0,0 l/m 3,6 km/h (1 Bft) 2 min 4,8 km/h (1 Bft)
04.08.2009 13:04 22,0 C 24,7 C 7,4 UV-I 5,5 C 54 % 41 % 100 % 1022,3 hPa 0,0 l/m 4,1 km/h (1 Bft) 2 min 8,4 km/h (2 Bft)
04.08.2009 13:06 22,1 C 24,9 C 7,4 UV-I 5,3 C 54 % 42 % 100 % 1022,3 hPa 0,0 l/m 4,1 km/h (1 Bft) 2 min 8,4 km/h (2 Bft)
04.08.2009 13:08 22,1 C 24,8 C 7,8 UV-I 5,5 C 54 % 41 % 100 % 1022,3 hPa 0,0 l/m 3,4 km/h (1 Bft) 2 min 3,6 km/h (1 Bft)
04.08.2009 13:10 22,1 C 24,7 C 7,8 UV-I 5,7 C 54 % 41 % 100 % 1022,3 hPa 0,0 l/m 2,4 km/h (1 Bft) 2 min 3,6 km/h (1 Bft)
04.08.2009 13:12 22,1 C 24,8 C 7,9 UV-I 5,7 C 54 % 42 % 100 % 1022,3 hPa 0,0 l/m 2,4 km/h (1 Bft) 2 min 5,1 km/h (1 Bft)
04.08.2009 13:14 22,2 C 25,0 C 7,9 UV-I 5,5 C 54 % 43 % 100 % 1022,3 hPa 0,0 l/m 1,9 km/h (1 Bft) 2 min 5,1 km/h (1 Bft)
04.08.2009 13:16 22,2 C 25,1 C 7,9 UV-I 5,7 C 54 % 43 % 100 % 1022,2 hPa 0,0 l/m 1,2 km/h (1 Bft) 2 min 3,4 km/h (1 Bft)
04.08.2009 13:18 22,2 C 25,1 C 7,9 UV-I 5,9 C 54 % 42 % 100 % 1022,2 hPa 0,0 l/m 1,4 km/h (1 Bft) 2 min 3,4 km/h (1 Bft)
04.08.2009 13:20 22,2 C 25,2 C 7,9 UV-I 5,7 C 54 % 42 % 100 % 1022,2 hPa 0,0 l/m 1,4 km/h (1 Bft) 2 min 0,0 km/h (0 Bft)
04.08.2009 13:22 22,2 C 25,5 C 4,9 UV-I 5,3 C 54 % 43 % 100 % 1022,2 hPa 0,0 l/m 1,2 km/h (1 Bft) 2 min 0,0 km/h (0 Bft)
04.08.2009 13:24 22,3 C 25,5 C 4,9 UV-I 5,6 C 54 % 41 % 100 % 1022,2 hPa 0,0 l/m 1,2 km/h (1 Bft) 2 min 2,6 km/h (1 Bft)
04.08.2009 13:26 22,3 C 25,5 C 4,9 UV-I 5,8 C 54 % 43 % 100 % 1022,2 hPa 0,0 l/m 1,2 km/h (1 Bft) 2 min 2,6 km/h (1 Bft)
04.08.2009 13:28 22,3 C 25,6 C 5,0 UV-I 5,8 C 53 % 43 % 100 % 1022,2 hPa 0,0 l/m 0,7 km/h (0 Bft) 2 min 3,1 km/h (1 Bft)
04.08.2009 13:30 22,2 C 25,6 C 5,0 UV-I 6,0 C 53 % 42 % 100 % 1022,2 hPa 0,0 l/m 0,5 km/h (0 Bft) 2 min 3,1 km/h (1 Bft)
04.08.2009 13:32 22,2 C 25,6 C 6,3 UV-I 6,2 C 53 % 42 % 100 % 1022,2 hPa 0,0 l/m 0,5 km/h (0 Bft) 2 min 2,6 km/h (1 Bft)
04.08.2009 13:34 22,2 C 25,7 C 6,3 UV-I 6,1 C 53 % 42 % 100 % 1022,2 hPa 0,0 l/m 0,5 km/h (0 Bft) 2 min 2,6 km/h (1 Bft)
04.08.2009 13:36 22,4 C 25,8 C 6,3 UV-I 6,2 C 53 % 42 % 100 % 1022,1 hPa 0,0 l/m 0,5 km/h (0 Bft) 2 min 0,0 km/h (0 Bft)
04.08.2009 13:38 22,4 C 25,8 C 7,6 UV-I 6,1 C 53 % 42 % 100 % 1022,1 hPa 0,0 l/m 0,7 km/h (0 Bft) 2 min 3,4 km/h (1 Bft)
04.08.2009 13:40 22,4 C 25,9 C 7,6 UV-I 5,9 C 53 % 41 % 100 % 1022,1 hPa 0,0 l/m 0,7 km/h (0 Bft) 2 min 3,4 km/h (1 Bft)
04.08.2009 13:42 22,4 C 26,0 C 7,8 UV-I 5,8 C 53 % 41 % 100 % 1022,1 hPa 0,0 l/m 0,7 km/h (0 Bft) 2 min 2,6 km/h (1 Bft)
04.08.2009 13:44 22,5 C 26,1 C 7,8 UV-I 5,8 C 53 % 41 % 100 % 1022,1 hPa 0,0 l/m 1,0 km/h (0 Bft) 2 min 3,1 km/h (1 Bft)
04.08.2009 13:46 22,5 C 26,0 C 7,8 UV-I 5,8 C 53 % 40 % 100 % 1022,1 hPa 0,0 l/m 1,4 km/h (1 Bft) 2 min 4,1 km/h (1 Bft)
04.08.2009 13:48 22,6 C 26,0 C 7,7 UV-I 5,6 C 53 % 40 % 100 % 1022,1 hPa 0,0 l/m 1,7 km/h (1 Bft) 2 min 4,1 km/h (1 Bft)
04.08.2009 13:50 22,6 C 26,1 C 7,7 UV-I 5,2 C 53 % 39 % 100 % 1022,1 hPa 0,0 l/m 1,7 km/h (1 Bft) 2 min 4,3 km/h (1 Bft)
04.08.2009 13:52 22,6 C 26,1 C 7,5 UV-I 4,8 C 53 % 40 % 100 % 1022,1 hPa 0,0 l/m 2,6 km/h (1 Bft) 2 min 4,3 km/h (1 Bft)
04.08.2009 13:54 22,7 C 26,3 C 7,5 UV-I 4,3 C 53 % 41 % 100 % 1022,1 hPa 0,0 l/m 3,4 km/h (1 Bft) 2 min 10,8 km/h (2 Bft)
04.08.2009 13:56 22,7 C 26,3 C 7,5 UV-I 4,1 C 53 % 40 % 100 % 1022,2 hPa 0,0 l/m 3,1 km/h (1 Bft) 2 min 10,8 km/h (2 Bft)
04.08.2009 13:58 22,8 C 26,4 C 7,5 UV-I 4,1 C 52 % 40 % 100 % 1022,2 hPa 0,0 l/m 2,9 km/h (1 Bft) 2 min 0,0 km/h (0 Bft)
04.08.2009 14:00 22,8 C 26,5 C 7,5 UV-I 4,4 C 52 % 41 % 100 % 1022,2 hPa 0,0 l/m 2,2 km/h (1 Bft) 2 min 0,0 km/h (0 Bft)
04.08.2009 14:02 22,8 C 26,4 C 6,6 UV-I 4,7 C 52 % 40 % 100 % 1022,2 hPa 0,0 l/m 1,4 km/h (1 Bft) 2 min 0,0 km/h (0 Bft)
04.08.2009 14:04 22,8 C 26,4 C 6,6 UV-I 4,5 C 52 % 38 % 100 % 1022,2 hPa 0,0 l/m 1,7 km/h (1 Bft) 2 min 7,7 km/h (2 Bft)
04.08.2009 14:06 22,9 C 26,4 C 6,6 UV-I 4,5 C 52 % 37 % 100 % 1022,2 hPa 0,0 l/m 1,2 km/h (1 Bft) 2 min 7,7 km/h (2 Bft)
04.08.2009 14:08 22,9 C 26,3 C 7,2 UV-I 4,5 C 52 % 39 % 100 % 1022,2 hPa 0,0 l/m 1,9 km/h (1 Bft) 2 min 6,7 km/h (2 Bft)
04.08.2009 14:10 23,0 C 26,2 C 7,2 UV-I 4,6 C 52 % 40 % 100 % 1022,2 hPa 0,0 l/m 1,9 km/h (1 Bft) 2 min 4,3 km/h (1 Bft)
04.08.2009 14:12 23,0 C 26,4 C 7,5 UV-I 4,5 C 52 % 40 % 100 % 1022,2 hPa 0,0 l/m 2,2 km/h (1 Bft) 2 min 4,3 km/h (1 Bft)
04.08.2009 14:14 23,0 C 26,5 C 7,5 UV-I 4,6 C 52 % 40 % 100 % 1022,2 hPa 0,0 l/m 2,2 km/h (1 Bft) 2 min 3,8 km/h (1 Bft)
04.08.2009 14:16 23,0 C 26,5 C 7,5 UV-I 4,8 C 52 % 38 % 100 % 1022,6 hPa 0,0 l/m 2,2 km/h (1 Bft) 2 min 4,8 km/h (1 Bft)
04.08.2009 14:18 23,1 C 26,6 C 7,5 UV-I 4,7 C 52 % 39 % 100 % 1022,6 hPa 0,0 l/m 1,9 km/h (1 Bft) 2 min 4,8 km/h (1 Bft)
04.08.2009 14:20 23,1 C 26,5 C 7,5 UV-I 4,8 C 52 % 39 % 100 % 1022,6 hPa 0,0 l/m 1,7 km/h (1 Bft) 2 min 2,9 km/h (1 Bft)
04.08.2009 14:22 23,2 C 26,5 C 7,4 UV-I 4,8 C 51 % 37 % 100 % 1022,6 hPa 0,0 l/m 2,6 km/h (1 Bft) 2 min 12,5 km/h (3 Bft)
04.08.2009 14:24 23,2 C 26,4 C 7,4 UV-I 4,8 C 51 % 37 % 100 % 1022,6 hPa 0,0 l/m 2,9 km/h (1 Bft) 2 min 12,5 km/h (3 Bft)
04.08.2009 14:26 23,2 C 26,3 C 7,4 UV-I 4,8 C 51 % 38 % 100 % 1022,6 hPa 0,0 l/m 2,9 km/h (1 Bft) 2 min 0,0 km/h (0 Bft)
04.08.2009 14:28 23,3 C 26,3 C 7,2 UV-I 4,9 C 51 % 39 % 100 % 1022,6 hPa 0,0 l/m 2,4 km/h (1 Bft) 2 min 2,9 km/h (1 Bft)
04.08.2009 14:30 23,2 C 26,4 C 7,2 UV-I 4,9 C 51 % 38 % 100 % 1022,6 hPa 0,0 l/m 2,4 km/h (1 Bft) 2 min 2,9 km/h (1 Bft)
04.08.2009 14:32 23,4 C 26,4 C 7,1 UV-I 5,2 C 51 % 39 % 100 % 1022,6 hPa 0,0 l/m 2,4 km/h (1 Bft) 2 min 6,3 km/h (2 Bft)
04.08.2009 14:34 23,4 C 26,4 C 7,1 UV-I 5,2 C 51 % 37 % 100 % 1022,6 hPa 0,0 l/m 1,7 km/h (1 Bft) 2 min 6,3 km/h (2 Bft)
04.08.2009 14:36 23,4 C 26,3 C 7,1 UV-I 5,1 C 51 % 37 % 100 % 1022,5 hPa 0,0 l/m 2,4 km/h (1 Bft) 2 min 5,1 km/h (1 Bft)
04.08.2009 14:38 23,4 C 26,2 C 7,1 UV-I 5,0 C 51 % 37 % 100 % 1022,5 hPa 0,0 l/m 2,6 km/h (1 Bft) 2 min 2,6 km/h (1 Bft)
04.08.2009 14:40 23,5 C 26,3 C 7,1 UV-I 4,8 C 50 % 36 % 100 % 1022,5 hPa 0,0 l/m 3,1 km/h (1 Bft) 2 min 0,0 km/h (0 Bft)
04.08.2009 14:42 23,5 C 26,3 C 7,0 UV-I 4,8 C 50 % 37 % 100 % 1022,5 hPa 0,0 l/m 2,9 km/h (1 Bft) 2 min 0,0 km/h (0 Bft)
04.08.2009 14:44 23,6 C 26,2 C 7,0 UV-I 4,9 C 50 % 37 % 100 % 1022,5 hPa 0,0 l/m 3,1 km/h (1 Bft) 2 min 4,3 km/h (1 Bft)
04.08.2009 14:46 23,6 C 26,3 C 7,0 UV-I 4,8 C 50 % 37 % 100 % 1022,5 hPa 0,0 l/m 2,2 km/h (1 Bft) 2 min 4,3 km/h (1 Bft)
04.08.2009 14:48 23,6 C 26,5 C 6,8 UV-I 4,6 C 50 % 38 % 100 % 1022,5 hPa 0,0 l/m 2,2 km/h (1 Bft) 2 min 5,5 km/h (1 Bft)
04.08.2009 14:50 23,7 C 26,4 C 6,8 UV-I 4,9 C 50 % 36 % 100 % 1022,5 hPa 0,0 l/m 2,4 km/h (1 Bft) 2 min 5,5 km/h (1 Bft)
04.08.2009 14:52 23,8 C 26,4 C 6,8 UV-I 4,9 C 50 % 37 % 100 % 1022,5 hPa 0,0 l/m 2,9 km/h (1 Bft) 2 min 5,5 km/h (1 Bft)
04.08.2009 14:54 23,8 C 26,4 C 6,8 UV-I 4,9 C 49 % 36 % 100 % 1022,5 hPa 0,0 l/m 2,9 km/h (1 Bft) 2 min 5,5 km/h (1 Bft)
04.08.2009 14:56 23,8 C 26,3 C 6,8 UV-I 4,8 C 49 % 36 % 100 % 1022,3 hPa 0,0 l/m 3,6 km/h (1 Bft) 2 min 5,8 km/h (2 Bft)
04.08.2009 14:58 23,9 C 26,3 C 6,6 UV-I 4,6 C 49 % 36 % 100 % 1022,3 hPa 0,0 l/m 4,3 km/h (1 Bft) 2 min 5,8 km/h (2 Bft)
04.08.2009 15:00 23,9 C 26,2 C 6,6 UV-I 4,6 C 49 % 36 % 100 % 1022,3 hPa 0,0 l/m 3,8 km/h (1 Bft) 2 min 4,8 km/h (1 Bft)
04.08.2009 15:02 24,0 C 26,3 C 6,5 UV-I 4,5 C 49 % 36 % 100 % 1022,3 hPa 0,0 l/m 3,6 km/h (1 Bft) 2 min 2,6 km/h (1 Bft)
04.08.2009 15:04 24,0 C 26,2 C 6,5 UV-I 4,7 C 49 % 37 % 100 % 1022,3 hPa 0,0 l/m 2,9 km/h (1 Bft) 2 min 0,0 km/h (0 Bft)
04.08.2009 15:06 24,0 C 26,4 C 6,5 UV-I 4,5 C 49 % 38 % 100 % 1022,3 hPa 0,0 l/m 2,2 km/h (1 Bft) 2 min 0,0 km/h (0 Bft)
04.08.2009 15:08 24,0 C 26,6 C 6,5 UV-I 4,6 C 49 % 39 % 100 % 1022,3 hPa 0,0 l/m 1,0 km/h (0 Bft) 2 min 0,0 km/h (0 Bft)
04.08.2009 15:10 24,1 C 26,7 C 6,5 UV-I 4,7 C 49 % 38 % 100 % 1022,3 hPa 0,0 l/m 1,0 km/h (0 Bft) 2 min 5,3 km/h (1 Bft)
04.08.2009 15:12 24,1 C 26,8 C 6,6 UV-I 4,9 C 48 % 37 % 100 % 1022,3 hPa 0,0 l/m 0,7 km/h (0 Bft) 2 min 5,3 km/h (1 Bft)
04.08.2009 15:14 24,2 C 26,9 C 6,6 UV-I 5,0 C 48 % 38 % 100 % 1022,3 hPa 0,0 l/m 0,7 km/h (0 Bft) 2 min 4,8 km/h (1 Bft)
04.08.2009 15:16 24,2 C 26,8 C 6,6 UV-I 5,3 C 48 % 37 % 100 % 1022,3 hPa 0,0 l/m 0,7 km/h (0 Bft) 2 min 3,8 km/h (1 Bft)
04.08.2009 15:18 24,3 C 26,9 C 6,6 UV-I 5,5 C 48 % 37 % 100 % 1022,3 hPa 0,0 l/m 0,7 km/h (0 Bft) 2 min 3,8 km/h (1 Bft)
04.08.2009 15:20 24,3 C 27,0 C 6,6 UV-I 5,7 C 48 % 38 % 100 % 1022,3 hPa 0,0 l/m 1,4 km/h (1 Bft) 2 min 6,5 km/h (2 Bft)
04.08.2009 15:22 24,2 C 27,1 C 6,7 UV-I 5,4 C 48 % 37 % 100 % 1022,3 hPa 0,0 l/m 1,4 km/h (1 Bft) 2 min 6,5 km/h (2 Bft)
04.08.2009 15:24 24,4 C 27,3 C 6,7 UV-I 5,2 C 48 % 38 % 100 % 1022,3 hPa 0,0 l/m 1,0 km/h (0 Bft) 2 min 4,3 km/h (1 Bft)
04.08.2009 15:26 24,4 C 27,4 C 6,7 UV-I 5,1 C 48 % 38 % 100 % 1022,3 hPa 0,0 l/m 1,4 km/h (1 Bft) 2 min 3,1 km/h (1 Bft)
04.08.2009 15:28 24,5 C 27,4 C 6,8 UV-I 5,1 C 48 % 38 % 100 % 1022,3 hPa 0,0 l/m 1,4 km/h (1 Bft) 2 min 0,0 km/h (0 Bft)
04.08.2009 15:30 24,5 C 27,6 C 6,8 UV-I 5,2 C 48 % 38 % 100 % 1022,3 hPa 0,0 l/m 1,7 km/h (1 Bft) 2 min 5,5 km/h (1 Bft)
04.08.2009 15:32 24,5 C 27,7 C 6,8 UV-I 5,1 C 48 % 36 % 100 % 1022,3 hPa 0,0 l/m 1,2 km/h (1 Bft) 2 min 5,5 km/h (1 Bft)
04.08.2009 15:34 24,6 C 27,6 C 6,8 UV-I 5,3 C 48 % 36 % 100 % 1022,3 hPa 0,0 l/m 1,2 km/h (1 Bft) 2 min 0,0 km/h (0 Bft)
04.08.2009 15:36 24,6 C 27,7 C 6,8 UV-I 5,3 C 47 % 35 % 100 % 1021,7 hPa 0,0 l/m 1,2 km/h (1 Bft) 2 min 2,9 km/h (1 Bft)
04.08.2009 15:38 24,7 C 27,6 C 7,0 UV-I 5,4 C 47 % 36 % 100 % 1021,7 hPa 0,0 l/m 1,2 km/h (1 Bft) 2 min 2,9 km/h (1 Bft)
04.08.2009 15:40 24,7 C 27,6 C 7,0 UV-I 5,3 C 47 % 36 % 100 % 1021,7 hPa 0,0 l/m 1,2 km/h (1 Bft) 2 min 0,0 km/h (0 Bft)
04.08.2009 15:42 24,7 C 27,7 C 7,0 UV-I 5,3 C 47 % 36 % 100 % 1021,7 hPa 0,0 l/m 1,0 km/h (0 Bft) 2 min 0,0 km/h (0 Bft)
04.08.2009 15:44 24,8 C 27,8 C 7,0 UV-I 5,2 C 47 % 36 % 100 % 1021,7 hPa 0,0 l/m 1,0 km/h (0 Bft) 2 min 0,0 km/h (0 Bft)
04.08.2009 15:46 24,8 C 27,9 C 7,0 UV-I 5,1 C 47 % 36 % 100 % 1021,7 hPa 0,0 l/m 0,7 km/h (0 Bft) 2 min 3,1 km/h (1 Bft)
04.08.2009 15:48 24,8 C 27,9 C 7,4 UV-I 5,1 C 47 % 35 % 100 % 1021,7 hPa 0,0 l/m 1,0 km/h (0 Bft) 2 min 3,4 km/h (1 Bft)
04.08.2009 15:50 24,8 C 27,9 C 7,4 UV-I 5,1 C 47 % 35 % 100 % 1021,7 hPa 0,0 l/m 0,7 km/h (0 Bft) 2 min 0,0 km/h (0 Bft)
04.08.2009 15:52 24,9 C 28,0 C 7,7 UV-I 5,0 C 47 % 35 % 100 % 1021,7 hPa 0,0 l/m 0,7 km/h (0 Bft) 2 min 3,1 km/h (1 Bft)
04.08.2009 15:54 24,9 C 28,0 C 7,7 UV-I 5,0 C 47 % 35 % 100 % 1021,7 hPa 0,0 l/m 1,2 km/h (1 Bft) 2 min 3,1 km/h (1 Bft)
04.08.2009 15:56 24,9 C 28,0 C 7,7 UV-I 4,8 C 47 % 35 % 100 % 1021,8 hPa 0,0 l/m 1,2 km/h (1 Bft) 2 min 3,1 km/h (1 Bft)
04.08.2009 15:58 25,0 C 28,1 C 8,2 UV-I 4,8 C 47 % 35 % 100 % 1021,8 hPa 0,0 l/m 1,2 km/h (1 Bft) 2 min 3,1 km/h (1 Bft)
04.08.2009 16:00 25,0 C 28,2 C 8,2 UV-I 4,6 C 47 % 35 % 100 % 1021,8 hPa 0,0 l/m 1,4 km/h (1 Bft) 2 min 3,1 km/h (1 Bft)
04.08.2009 16:02 25,1 C 28,3 C 8,6 UV-I 4,4 C 46 % 34 % 100 % 1021,8 hPa 0,0 l/m 1,4 km/h (1 Bft) 2 min 2,9 km/h (1 Bft)
04.08.2009 16:04 25,1 C 28,3 C 8,6 UV-I 4,5 C 46 % 35 % 100 % 1021,8 hPa 0,0 l/m 1,2 km/h (1 Bft) 2 min 3,4 km/h (1 Bft)
04.08.2009 16:06 25,1 C 28,3 C 8,6 UV-I 4,6 C 46 % 34 % 100 % 1021,8 hPa 0,0 l/m 1,2 km/h (1 Bft) 2 min 3,4 km/h (1 Bft)
04.08.2009 16:08 25,2 C 28,3 C 9,1 UV-I 4,7 C 46 % 34 % 100 % 1021,8 hPa 0,0 l/m 1,4 km/h (1 Bft) 2 min 4,1 km/h (1 Bft)
04.08.2009 16:10 25,2 C 28,3 C 9,1 UV-I 4,7 C 46 % 34 % 100 % 1021,8 hPa 0,0 l/m 1,0 km/h (0 Bft) 2 min 4,1 km/h (1 Bft)
04.08.2009 16:14 25,3 C 28,4 C 9,5 UV-I 4,9 C 46 % 34 % 100 % 1021,8 hPa 0,0 l/m 1,2 km/h (1 Bft) 2 min 8,2 km/h (2 Bft)
04.08.2009 16:16 25,2 C 28,3 C 9,5 UV-I 5,0 C 46 % 34 % 100 % 1021,2 hPa 0,0 l/m 1,2 km/h (1 Bft) 2 min 8,2 km/h (2 Bft)
04.08.2009 16:18 25,2 C 28,2 C 10,0 UV-I 5,0 C 46 % 34 % 100 % 1021,2 hPa 0,0 l/m 1,4 km/h (1 Bft) 2 min 3,6 km/h (1 Bft)
04.08.2009 16:20 25,4 C 28,1 C 10,0 UV-I 4,9 C 46 % 34 % 100 % 1021,2 hPa 0,0 l/m 1,7 km/h (1 Bft) 2 min 3,6 km/h (1 Bft)
04.08.2009 16:22 25,4 C 28,0 C 9,9 UV-I 4,8 C 46 % 34 % 100 % 1021,2 hPa 0,0 l/m 1,9 km/h (1 Bft) 2 min 4,3 km/h (1 Bft)
04.08.2009 16:24 25,4 C 27,9 C 9,9 UV-I 4,7 C 45 % 33 % 100 % 1021,2 hPa 0,0 l/m 2,9 km/h (1 Bft) 2 min 5,3 km/h (1 Bft)
04.08.2009 16:26 25,4 C 27,9 C 9,9 UV-I 4,4 C 45 % 34 % 100 % 1021,2 hPa 0,0 l/m 2,9 km/h (1 Bft) 2 min 5,3 km/h (1 Bft)
04.08.2009 16:28 25,5 C 27,9 C 10,0 UV-I 4,3 C 45 % 35 % 100 % 1021,2 hPa 0,0 l/m 3,1 km/h (1 Bft) 2 min 9,1 km/h (2 Bft)
04.08.2009 16:30 25,5 C 27,8 C 10,0 UV-I 4,4 C 45 % 34 % 100 % 1021,2 hPa 0,0 l/m 3,1 km/h (1 Bft) 2 min 9,1 km/h (2 Bft)
04.08.2009 16:32 25,6 C 27,8 C 10,0 UV-I 4,4 C 45 % 35 % 100 % 1021,2 hPa 0,0 l/m 2,9 km/h (1 Bft) 2 min 3,6 km/h (1 Bft)
04.08.2009 16:34 25,6 C 27,9 C 10,0 UV-I 4,3 C 45 % 33 % 100 % 1021,2 hPa 0,0 l/m 2,4 km/h (1 Bft) 2 min 6,0 km/h (2 Bft)
04.08.2009 16:36 25,6 C 27,8 C 10,0 UV-I 4,5 C 45 % 33 % 100 % 1021,4 hPa 0,0 l/m 1,9 km/h (1 Bft) 2 min 6,0 km/h (2 Bft)
04.08.2009 16:38 25,6 C 27,9 C 9,8 UV-I 4,5 C 45 % 35 % 100 % 1021,4 hPa 0,0 l/m 1,9 km/h (1 Bft) 2 min 4,1 km/h (1 Bft)
04.08.2009 16:40 25,7 C 27,9 C 9,8 UV-I 4,4 C 45 % 35 % 100 % 1021,4 hPa 0,0 l/m 1,7 km/h (1 Bft) 2 min 5,5 km/h (1 Bft)
04.08.2009 16:42 25,7 C 27,9 C 9,6 UV-I 4,3 C 45 % 34 % 100 % 1021,4 hPa 0,0 l/m 1,9 km/h (1 Bft) 2 min 5,5 km/h (1 Bft)
04.08.2009 16:44 25,7 C 27,9 C 9,6 UV-I 4,4 C 45 % 34 % 100 % 1021,4 hPa 0,0 l/m 2,2 km/h (1 Bft) 2 min 3,4 km/h (1 Bft)
04.08.2009 16:46 25,8 C 27,8 C 9,6 UV-I 4,5 C 45 % 34 % 100 % 1021,4 hPa 0,0 l/m 2,2 km/h (1 Bft) 2 min 3,4 km/h (1 Bft)
04.08.2009 16:48 25,8 C 27,9 C 9,6 UV-I 4,4 C 45 % 35 % 100 % 1021,4 hPa 0,0 l/m 2,2 km/h (1 Bft) 2 min 0,0 km/h (0 Bft)
04.08.2009 16:50 25,8 C 27,9 C 9,6 UV-I 4,5 C 45 % 35 % 100 % 1021,4 hPa 0,0 l/m 1,9 km/h (1 Bft) 2 min 0,0 km/h (0 Bft)
04.08.2009 16:52 25,8 C 28,0 C 8,8 UV-I 4,5 C 44 % 34 % 100 % 1021,4 hPa 0,0 l/m 1,7 km/h (1 Bft) 2 min 0,0 km/h (0 Bft)
04.08.2009 16:54 25,9 C 28,0 C 8,8 UV-I 4,6 C 44 % 34 % 100 % 1021,4 hPa 0,0 l/m 1,7 km/h (1 Bft) 2 min 3,8 km/h (1 Bft)
04.08.2009 16:56 25,9 C 27,9 C 8,8 UV-I 4,8 C 44 % 34 % 100 % 1021,0 hPa 0,0 l/m 0,7 km/h (0 Bft) 2 min 3,8 km/h (1 Bft)
04.08.2009 16:58 26,0 C 28,0 C 8,3 UV-I 4,8 C 44 % 35 % 100 % 1021,0 hPa 0,0 l/m 0,7 km/h (0 Bft) 2 min 3,8 km/h (1 Bft)
04.08.2009 17:00 26,0 C 27,9 C 8,3 UV-I 4,9 C 44 % 34 % 100 % 1021,0 hPa 0,0 l/m 1,2 km/h (1 Bft) 2 min 3,8 km/h (1 Bft)
04.08.2009 17:02 26,0 C 27,9 C 4,5 UV-I 4,9 C 44 % 34 % 100 % 1021,0 hPa 0,0 l/m 1,0 km/h (0 Bft) 2 min 0,0 km/h (0 Bft)
04.08.2009 17:04 26,0 C 27,9 C 4,5 UV-I 4,9 C 44 % 34 % 100 % 1021,0 hPa 0,0 l/m 0,7 km/h (0 Bft) 2 min 0,0 km/h (0 Bft)
04.08.2009 17:06 26,0 C 27,9 C 4,5 UV-I 4,9 C 44 % 35 % 100 % 1021,0 hPa 0,0 l/m 0,7 km/h (0 Bft) 2 min 0,0 km/h (0 Bft)
04.08.2009 17:08 26,0 C 27,9 C 3,0 UV-I 4,9 C 44 % 34 % 100 % 1021,0 hPa 0,0 l/m 0,7 km/h (0 Bft) 2 min 0,0 km/h (0 Bft)
04.08.2009 17:10 26,1 C 27,9 C 3,0 UV-I 5,1 C 44 % 34 % 100 % 1021,0 hPa 0,0 l/m 0,2 km/h (0 Bft) 2 min 0,0 km/h (0 Bft)
04.08.2009 17:12 26,1 C 27,9 C 2,8 UV-I 5,2 C 44 % 34 % 100 % 1021,0 hPa 0,0 l/m 0,2 km/h (0 Bft) 2 min 0,0 km/h (0 Bft)
04.08.2009 17:14 26,1 C 27,9 C 2,8 UV-I 5,4 C 44 % 33 % 100 % 1021,0 hPa 0,0 l/m 0,5 km/h (0 Bft) 2 min 3,1 km/h (1 Bft)
04.08.2009 17:16 26,1 C 27,7 C 2,8 UV-I 5,4 C 44 % 34 % 100 % 1021,1 hPa 0,0 l/m 0,5 km/h (0 Bft) 2 min 3,1 km/h (1 Bft)
04.08.2009 17:18 26,1 C 27,7 C 2,7 UV-I 5,4 C 44 % 34 % 100 % 1021,1 hPa 0,0 l/m 0,5 km/h (0 Bft) 2 min 0,0 km/h (0 Bft)
04.08.2009 17:20 26,2 C 27,6 C 2,7 UV-I 5,7 C 44 % 34 % 100 % 1021,1 hPa 0,0 l/m 0,5 km/h (0 Bft) 2 min 2,6 km/h (1 Bft)
04.08.2009 17:22 26,2 C 27,6 C 2,5 UV-I 5,7 C 44 % 34 % 100 % 1021,1 hPa 0,0 l/m 0,5 km/h (0 Bft) 2 min 2,6 km/h (1 Bft)
04.08.2009 17:24 26,2 C 27,6 C 2,5 UV-I 5,7 C 44 % 34 % 100 % 1021,1 hPa 0,0 l/m 0,2 km/h (0 Bft) 2 min 0,0 km/h (0 Bft)
04.08.2009 17:26 26,2 C 27,4 C 2,5 UV-I 5,9 C 44 % 32 % 100 % 1021,1 hPa 0,0 l/m 0,5 km/h (0 Bft) 2 min 0,0 km/h (0 Bft)
04.08.2009 17:28 26,2 C 27,3 C 2,5 UV-I 5,9 C 44 % 33 % 100 % 1021,1 hPa 0,0 l/m 0,5 km/h (0 Bft) 2 min 0,0 km/h (0 Bft)
04.08.2009 17:30 26,3 C 27,3 C 2,5 UV-I 5,7 C 44 % 34 % 100 % 1021,1 hPa 0,0 l/m 0,7 km/h (0 Bft) 2 min 4,6 km/h (1 Bft)
04.08.2009 17:32 26,3 C 27,2 C 2,5 UV-I 5,5 C 44 % 34 % 100 % 1021,1 hPa 0,0 l/m 1,0 km/h (0 Bft) 2 min 4,6 km/h (1 Bft)
04.08.2009 17:34 26,2 C 27,2 C 2,5 UV-I 5,4 C 44 % 33 % 100 % 1021,1 hPa 0,0 l/m 1,0 km/h (0 Bft) 2 min 0,0 km/h (0 Bft)
04.08.2009 17:36 26,4 C 27,2 C 2,5 UV-I 5,5 C 43 % 32 % 100 % 1021,7 hPa 0,0 l/m 1,0 km/h (0 Bft) 2 min 3,4 km/h (1 Bft)
04.08.2009 17:38 26,4 C 27,1 C 2,4 UV-I 5,6 C 43 % 33 % 100 % 1021,7 hPa 0,0 l/m 0,7 km/h (0 Bft) 2 min 3,4 km/h (1 Bft)
04.08.2009 17:40 26,4 C 27,1 C 2,4 UV-I 5,5 C 43 % 32 % 100 % 1021,7 hPa 0,0 l/m 1,2 km/h (1 Bft) 2 min 5,3 km/h (1 Bft)
04.08.2009 17:42 26,4 C 26,9 C 2,4 UV-I 5,4 C 43 % 32 % 100 % 1021,7 hPa 0,0 l/m 1,4 km/h (1 Bft) 2 min 5,3 km/h (1 Bft)
04.08.2009 17:44 26,4 C 26,7 C 2,4 UV-I 5,4 C 43 % 32 % 100 % 1021,7 hPa 0,0 l/m 1,9 km/h (1 Bft) 2 min 3,1 km/h (1 Bft)
04.08.2009 17:46 26,4 C 26,6 C 2,4 UV-I 5,3 C 43 % 32 % 100 % 1021,7 hPa 0,0 l/m 2,2 km/h (1 Bft) 2 min 2,6 km/h (1 Bft)
04.08.2009 17:48 26,4 C 26,5 C 2,3 UV-I 5,1 C 43 % 32 % 100 % 1021,7 hPa 0,0 l/m 2,6 km/h (1 Bft) 2 min 6,3 km/h (2 Bft)
04.08.2009 17:50 26,4 C 26,4 C 2,3 UV-I 5,0 C 43 % 34 % 100 % 1021,7 hPa 0,0 l/m 3,1 km/h (1 Bft) 2 min 6,3 km/h (2 Bft)
04.08.2009 17:52 26,4 C 26,3 C 2,2 UV-I 4,8 C 43 % 34 % 100 % 1021,7 hPa 0,0 l/m 2,6 km/h (1 Bft) 2 min 4,6 km/h (1 Bft)
04.08.2009 17:54 26,4 C 26,3 C 2,2 UV-I 4,6 C 43 % 33 % 100 % 1021,7 hPa 0,0 l/m 3,1 km/h (1 Bft) 2 min 4,6 km/h (1 Bft)
04.08.2009 17:56 26,4 C 26,2 C 2,2 UV-I 4,5 C 43 % 34 % 100 % 1021,4 hPa 0,0 l/m 3,4 km/h (1 Bft) 2 min 4,6 km/h (1 Bft)
04.08.2009 17:58 26,4 C 26,1 C 2,2 UV-I 4,5 C 43 % 32 % 100 % 1021,4 hPa 0,0 l/m 3,1 km/h (1 Bft) 2 min 2,6 km/h (1 Bft)
04.08.2009 18:00 26,5 C 26,0 C 2,2 UV-I 4,8 C 43 % 34 % 100 % 1021,4 hPa 0,0 l/m 2,2 km/h (1 Bft) 2 min 2,9 km/h (1 Bft)
04.08.2009 18:02 26,4 C 26,1 C 2,2 UV-I 4,8 C 43 % 34 % 100 % 1021,4 hPa 0,0 l/m 2,2 km/h (1 Bft) 2 min 5,8 km/h (2 Bft)
04.08.2009 18:04 26,4 C 26,2 C 2,2 UV-I 4,6 C 43 % 35 % 100 % 1021,4 hPa 0,0 l/m 1,9 km/h (1 Bft) 2 min 5,8 km/h (2 Bft)
04.08.2009 18:06 26,4 C 26,1 C 2,2 UV-I 4,6 C 43 % 35 % 100 % 1021,4 hPa 0,0 l/m 1,9 km/h (1 Bft) 2 min 7,9 km/h (2 Bft)
04.08.2009 18:08 26,5 C 26,1 C 2,1 UV-I 4,5 C 43 % 35 % 100 % 1021,4 hPa 0,0 l/m 2,2 km/h (1 Bft) 2 min 7,9 km/h (2 Bft)
04.08.2009 18:10 26,5 C 26,2 C 2,1 UV-I 4,3 C 43 % 35 % 100 % 1021,4 hPa 0,0 l/m 2,6 km/h (1 Bft) 2 min 6,3 km/h (2 Bft)
04.08.2009 18:12 26,4 C 26,1 C 2,0 UV-I 4,3 C 43 % 35 % 100 % 1021,4 hPa 0,0 l/m 3,1 km/h (1 Bft) 2 min 6,3 km/h (2 Bft)
04.08.2009 18:14 26,5 C 26,1 C 2,0 UV-I 4,1 C 43 % 35 % 100 % 1021,4 hPa 0,0 l/m 3,4 km/h (1 Bft) 2 min 4,8 km/h (1 Bft)
04.08.2009 18:16 26,4 C 26,1 C 2,0 UV-I 3,9 C 43 % 35 % 100 % 1022,0 hPa 0,0 l/m 3,1 km/h (1 Bft) 2 min 2,9 km/h (1 Bft)
04.08.2009 18:18 26,4 C 26,0 C 1,9 UV-I 3,9 C 43 % 35 % 100 % 1022,0 hPa 0,0 l/m 2,6 km/h (1 Bft) 2 min 4,3 km/h (1 Bft)
04.08.2009 18:20 26,4 C 26,1 C 1,9 UV-I 3,7 C 43 % 35 % 100 % 1022,0 hPa 0,0 l/m 2,4 km/h (1 Bft) 2 min 4,3 km/h (1 Bft)
04.08.2009 18:22 26,4 C 26,0 C 1,8 UV-I 3,7 C 43 % 35 % 100 % 1022,0 hPa 0,0 l/m 1,7 km/h (1 Bft) 2 min 4,3 km/h (1 Bft)
04.08.2009 18:24 26,4 C 25,9 C 1,8 UV-I 3,7 C 43 % 33 % 100 % 1022,0 hPa 0,0 l/m 2,2 km/h (1 Bft) 2 min 5,5 km/h (1 Bft)
04.08.2009 18:26 26,4 C 25,8 C 1,8 UV-I 3,3 C 43 % 33 % 94 % 1022,0 hPa 0,0 l/m 1,4 km/h (1 Bft) 2 min 5,5 km/h (1 Bft)
04.08.2009 18:28 26,4 C 25,7 C 1,9 UV-I 3,1 C 43 % 34 % 89 % 1022,0 hPa 0,0 l/m 1,4 km/h (1 Bft) 2 min 0,0 km/h (0 Bft)
04.08.2009 18:30 26,4 C 25,6 C 1,9 UV-I 2,8 C 43 % 34 % 80 % 1022,0 hPa 0,0 l/m 1,2 km/h (1 Bft) 0 min 0,0 km/h (0 Bft)
04.08.2009 18:32 26,4 C 25,6 C 1,7 UV-I 2,4 C 43 % 35 % 69 % 1022,0 hPa 0,0 l/m 1,2 km/h (1 Bft) 0 min 2,4 km/h (1 Bft)
04.08.2009 18:34 26,4 C 25,7 C 1,7 UV-I 2,0 C 43 % 35 % 57 % 1022,0 hPa 0,0 l/m 0,7 km/h (0 Bft) 0 min 2,4 km/h (1 Bft)
04.08.2009 18:36 26,4 C 25,6 C 1,7 UV-I 1,6 C 43 % 35 % 46 % 1021,9 hPa 0,0 l/m 0,2 km/h (0 Bft) 0 min 2,4 km/h (1 Bft)
04.08.2009 18:38 26,4 C 25,6 C 1,5 UV-I 1,3 C 43 % 35 % 37 % 1021,9 hPa 0,0 l/m 0,2 km/h (0 Bft) 0 min 0,0 km/h (0 Bft)
04.08.2009 18:40 26,2 C 25,5 C 1,5 UV-I 1,3 C 43 % 35 % 37 % 1021,9 hPa 0,0 l/m 0,2 km/h (0 Bft) 0 min 0,0 km/h (0 Bft)
04.08.2009 18:42 26,3 C 25,5 C 1,6 UV-I 1,0 C 43 % 35 % 29 % 1021,9 hPa 0,0 l/m 0,5 km/h (0 Bft) 0 min 2,6 km/h (1 Bft)
04.08.2009 18:44 26,3 C 25,4 C 1,6 UV-I 0,9 C 43 % 35 % 26 % 1021,9 hPa 0,0 l/m 0,7 km/h (0 Bft) 0 min 4,1 km/h (1 Bft)
04.08.2009 18:46 26,2 C 25,2 C 1,6 UV-I 0,9 C 43 % 33 % 26 % 1021,9 hPa 0,0 l/m 0,7 km/h (0 Bft) 0 min 4,1 km/h (1 Bft)
04.08.2009 18:48 26,2 C 25,1 C 1,5 UV-I 0,8 C 43 % 33 % 23 % 1021,9 hPa 0,0 l/m 0,7 km/h (0 Bft) 0 min 0,0 km/h (0 Bft)
04.08.2009 18:50 26,2 C 25,0 C 1,5 UV-I 0,7 C 43 % 34 % 20 % 1021,9 hPa 0,0 l/m 1,0 km/h (0 Bft) 0 min 5,1 km/h (1 Bft)
04.08.2009 18:52 26,2 C 25,1 C 1,4 UV-I 0,4 C 43 % 35 % 11 % 1021,9 hPa 0,0 l/m 1,2 km/h (1 Bft) 0 min 5,1 km/h (1 Bft)
04.08.2009 18:54 26,1 C 25,1 C 1,4 UV-I 0,3 C 43 % 36 % 9 % 1021,9 hPa 0,0 l/m 0,7 km/h (0 Bft) 0 min 0,0 km/h (0 Bft)
04.08.2009 18:56 26,1 C 25,0 C 1,4 UV-I 0,2 C 43 % 36 % 6 % 1022,1 hPa 0,0 l/m 0,5 km/h (0 Bft) 0 min 0,0 km/h (0 Bft)
04.08.2009 18:58 26,1 C 24,9 C 1,3 UV-I 0,2 C 43 % 36 % 6 % 1022,1 hPa 0,0 l/m 0,7 km/h (0 Bft) 0 min 3,4 km/h (1 Bft)
04.08.2009 19:00 26,0 C 24,9 C 1,3 UV-I 0,1 C 43 % 37 % 3 % 1022,1 hPa 0,0 l/m 0,7 km/h (0 Bft) 0 min 3,4 km/h (1 Bft)
04.08.2009 19:02 26,0 C 24,9 C 1,3 UV-I 0,0 C 43 % 37 % 0 % 1022,1 hPa 0,0 l/m 0,5 km/h (0 Bft) 0 min 0,0 km/h (0 Bft)
04.08.2009 19:04 26,0 C 24,9 C 1,3 UV-I 0,0 C 43 % 37 % 0 % 1022,1 hPa 0,0 l/m 0,5 km/h (0 Bft) 0 min 2,9 km/h (1 Bft)
04.08.2009 19:08 25,9 C 24,9 C 1,3 UV-I 0,0 C 43 % 37 % 0 % 1022,1 hPa 0,0 l/m 1,0 km/h (0 Bft) 0 min 3,8 km/h (1 Bft)
04.08.2009 19:10 25,9 C 24,8 C 1,3 UV-I 0,0 C 44 % 37 % 0 % 1022,1 hPa 0,0 l/m 0,7 km/h (0 Bft) 0 min 5,3 km/h (1 Bft)
04.08.2009 19:12 25,9 C 24,7 C 1,2 UV-I 0,0 C 44 % 37 % 0 % 1022,1 hPa 0,0 l/m 1,0 km/h (0 Bft) 0 min 5,3 km/h (1 Bft)
04.08.2009 19:14 25,8 C 24,7 C 1,2 UV-I 0,0 C 44 % 37 % 0 % 1022,1 hPa 0,0 l/m 1,0 km/h (0 Bft) 0 min 2,4 km/h (1 Bft)
04.08.2009 19:16 25,8 C 24,7 C 1,2 UV-I 0,0 C 44 % 37 % 0 % 1021,9 hPa 0,0 l/m 0,5 km/h (0 Bft) 0 min 0,0 km/h (0 Bft)
04.08.2009 19:18 25,8 C 24,7 C 1,1 UV-I 0,0 C 44 % 37 % 0 % 1021,9 hPa 0,0 l/m 0,5 km/h (0 Bft) 0 min 0,0 km/h (0 Bft)
04.08.2009 19:20 25,7 C 24,5 C 1,1 UV-I 0,0 C 44 % 38 % 0 % 1021,9 hPa 0,0 l/m 0,5 km/h (0 Bft) 0 min 0,0 km/h (0 Bft)
04.08.2009 19:22 25,7 C 24,5 C 1,0 UV-I 0,0 C 44 % 38 % 0 % 1021,9 hPa 0,0 l/m 0,0 km/h (0 Bft) 0 min 0,0 km/h (0 Bft)
04.08.2009 19:24 25,7 C 24,4 C 1,0 UV-I 0,0 C 44 % 37 % 0 % 1021,9 hPa 0,0 l/m 0,0 km/h (0 Bft) 0 min 0,0 km/h (0 Bft)
04.08.2009 19:26 25,6 C 24,5 C 1,0 UV-I 0,0 C 44 % 38 % 0 % 1021,9 hPa 0,0 l/m 0,0 km/h (0 Bft) 0 min 0,0 km/h (0 Bft)
04.08.2009 19:28 25,6 C 24,3 C 0,9 UV-I 0,0 C 44 % 38 % 0 % 1021,9 hPa 0,0 l/m 0,2 km/h (0 Bft) 0 min 3,1 km/h (1 Bft)
04.08.2009 19:30 25,6 C 24,3 C 0,9 UV-I 0,0 C 44 % 39 % 0 % 1021,9 hPa 0,0 l/m 0,2 km/h (0 Bft) 0 min 3,1 km/h (1 Bft)
04.08.2009 19:32 25,6 C 24,2 C 0,9 UV-I 0,0 C 44 % 39 % 0 % 1021,9 hPa 0,0 l/m 0,2 km/h (0 Bft) 0 min 0,0 km/h (0 Bft)
04.08.2009 19:34 25,6 C 24,3 C 0,9 UV-I 0,0 C 44 % 40 % 0 % 1021,9 hPa 0,0 l/m 0,2 km/h (0 Bft) 0 min 2,4 km/h (1 Bft)
04.08.2009 19:36 25,5 C 24,1 C 0,9 UV-I 0,0 C 44 % 40 % 0 % 1021,8 hPa 0,0 l/m 0,5 km/h (0 Bft) 0 min 2,9 km/h (1 Bft)
04.08.2009 19:38 25,5 C 24,1 C 0,9 UV-I 0,0 C 44 % 40 % 0 % 1021,8 hPa 0,0 l/m 0,7 km/h (0 Bft) 0 min 2,9 km/h (1 Bft)
04.08.2009 19:40 25,5 C 24,0 C 0,9 UV-I 0,0 C 45 % 40 % 0 % 1021,8 hPa 0,0 l/m 0,5 km/h (0 Bft) 0 min 0,0 km/h (0 Bft)
04.08.2009 19:42 25,4 C 24,0 C 0,7 UV-I 0,0 C 45 % 41 % 0 % 1021,8 hPa 0,0 l/m 0,5 km/h (0 Bft) 0 min 0,0 km/h (0 Bft)
04.08.2009 19:44 25,4 C 23,9 C 0,7 UV-I 0,0 C 45 % 41 % 0 % 1021,8 hPa 0,0 l/m 0,5 km/h (0 Bft) 0 min 0,0 km/h (0 Bft)
04.08.2009 19:46 25,4 C 23,9 C 0,7 UV-I 0,0 C 45 % 41 % 0 % 1021,8 hPa 0,0 l/m 0,2 km/h (0 Bft) 0 min 0,0 km/h (0 Bft)
04.08.2009 19:48 25,4 C 23,9 C 0,7 UV-I 0,0 C 45 % 42 % 0 % 1021,8 hPa 0,0 l/m 0,0 km/h (0 Bft) 0 min 0,0 km/h (0 Bft)
04.08.2009 19:50 25,4 C 23,9 C 0,7 UV-I 0,0 C 45 % 43 % 0 % 1021,8 hPa 0,0 l/m 0,0 km/h (0 Bft) 0 min 0,0 km/h (0 Bft)
04.08.2009 19:52 25,2 C 23,8 C 0,6 UV-I 0,0 C 45 % 43 % 0 % 1021,8 hPa 0,0 l/m 0,0 km/h (0 Bft) 0 min 0,0 km/h (0 Bft)
04.08.2009 19:54 25,2 C 23,6 C 0,6 UV-I 0,0 C 45 % 43 % 0 % 1021,8 hPa 0,0 l/m 0,0 km/h (0 Bft) 0 min 0,0 km/h (0 Bft)
04.08.2009 19:56 25,3 C 23,7 C 0,6 UV-I 0,0 C 45 % 43 % 0 % 1021,7 hPa 0,0 l/m 0,0 km/h (0 Bft) 0 min 2,4 km/h (1 Bft)
04.08.2009 19:58 25,2 C 23,6 C 0,6 UV-I 0,0 C 45 % 43 % 0 % 1021,7 hPa 0,0 l/m 0,0 km/h (0 Bft) 0 min 2,4 km/h (1 Bft)
04.08.2009 20:00 25,2 C 23,5 C 0,6 UV-I 0,0 C 45 % 43 % 0 % 1021,7 hPa 0,0 l/m 0,0 km/h (0 Bft) 0 min 0,0 km/h (0 Bft)
04.08.2009 20:02 25,2 C 23,5 C 0,4 UV-I 0,0 C 45 % 44 % 0 % 1021,7 hPa 0,0 l/m 0,0 km/h (0 Bft) 0 min 0,0 km/h (0 Bft)
04.08.2009 20:04 25,2 C 23,5 C 0,4 UV-I 0,0 C 45 % 44 % 0 % 1021,7 hPa 0,0 l/m 0,0 km/h (0 Bft) 0 min 0,0 km/h (0 Bft)
04.08.2009 20:06 25,2 C 23,4 C 0,4 UV-I 0,0 C 45 % 44 % 0 % 1021,7 hPa 0,0 l/m 0,0 km/h (0 Bft) 0 min 0,0 km/h (0 Bft)
04.08.2009 20:08 25,2 C 23,3 C 0,3 UV-I 0,0 C 45 % 44 % 0 % 1021,7 hPa 0,0 l/m 0,0 km/h (0 Bft) 0 min 0,0 km/h (0 Bft)
04.08.2009 20:10 25,2 C 23,3 C 0,3 UV-I 0,0 C 45 % 45 % 0 % 1021,7 hPa 0,0 l/m 0,0 km/h (0 Bft) 0 min 0,0 km/h (0 Bft)
04.08.2009 20:12 25,2 C 23,2 C 0,4 UV-I 0,0 C 46 % 45 % 0 % 1021,7 hPa 0,0 l/m 0,0 km/h (0 Bft) 0 min 0,0 km/h (0 Bft)
04.08.2009 20:14 25,1 C 23,2 C 0,4 UV-I 0,0 C 46 % 44 % 0 % 1021,7 hPa 0,0 l/m 0,0 km/h (0 Bft) 0 min 0,0 km/h (0 Bft)
04.08.2009 20:16 25,1 C 23,1 C 0,4 UV-I 0,0 C 46 % 45 % 0 % 1021,8 hPa 0,0 l/m 0,0 km/h (0 Bft) 0 min 0,0 km/h (0 Bft)
04.08.2009 20:18 25,1 C 23,0 C 0,3 UV-I 0,0 C 46 % 46 % 0 % 1021,8 hPa 0,0 l/m 0,0 km/h (0 Bft) 0 min 0,0 km/h (0 Bft)
04.08.2009 20:20 25,0 C 23,1 C 0,3 UV-I 0,0 C 46 % 46 % 0 % 1021,8 hPa 0,0 l/m 0,0 km/h (0 Bft) 0 min 0,0 km/h (0 Bft)
04.08.2009 20:22 25,0 C 22,9 C 0,3 UV-I 0,0 C 46 % 46 % 0 % 1021,8 hPa 0,0 l/m 0,0 km/h (0 Bft) 0 min 0,0 km/h (0 Bft)
04.08.2009 20:24 25,0 C 22,8 C 0,3 UV-I 0,0 C 46 % 46 % 0 % 1021,8 hPa 0,0 l/m 0,0 km/h (0 Bft) 0 min 0,0 km/h (0 Bft)
04.08.2009 20:26 25,0 C 22,9 C 0,3 UV-I 0,0 C 46 % 47 % 0 % 1021,8 hPa 0,0 l/m 0,0 km/h (0 Bft) 0 min 0,0 km/h (0 Bft)
04.08.2009 20:28 25,0 C 22,7 C 0,2 UV-I 0,0 C 46 % 48 % 0 % 1021,8 hPa 0,0 l/m 0,0 km/h (0 Bft) 0 min 0,0 km/h (0 Bft)
04.08.2009 20:30 25,0 C 22,7 C 0,2 UV-I 0,0 C 46 % 48 % 0 % 1021,8 hPa 0,0 l/m 0,0 km/h (0 Bft) 0 min 0,0 km/h (0 Bft)
04.08.2009 20:32 25,0 C 22,7 C 0,1 UV-I 0,0 C 46 % 49 % 0 % 1021,8 hPa 0,0 l/m 0,0 km/h (0 Bft) 0 min 0,0 km/h (0 Bft)
04.08.2009 20:34 24,9 C 22,6 C 0,1 UV-I 0,0 C 46 % 49 % 0 % 1021,8 hPa 0,0 l/m 0,0 km/h (0 Bft) 0 min 0,0 km/h (0 Bft)
04.08.2009 20:36 24,9 C 22,5 C 0,1 UV-I 0,0 C 46 % 49 % 0 % 1021,9 hPa 0,0 l/m 0,0 km/h (0 Bft) 0 min 0,0 km/h (0 Bft)
04.08.2009 20:38 24,9 C 22,4 C 0,1 UV-I 0,0 C 46 % 49 % 0 % 1021,9 hPa 0,0 l/m 0,0 km/h (0 Bft) 0 min 0,0 km/h (0 Bft)
04.08.2009 20:40 24,9 C 22,4 C 0,1 UV-I 0,0 C 46 % 49 % 0 % 1021,9 hPa 0,0 l/m 0,0 km/h (0 Bft) 0 min 0,0 km/h (0 Bft)
04.08.2009 20:42 24,9 C 22,3 C 0,1 UV-I 0,0 C 46 % 50 % 0 % 1021,9 hPa 0,0 l/m 0,0 km/h (0 Bft) 0 min 0,0 km/h (0 Bft)
04.08.2009 20:44 24,8 C 22,2 C 0,1 UV-I 0,0 C 46 % 50 % 0 % 1021,9 hPa 0,0 l/m 0,0 km/h (0 Bft) 0 min 0,0 km/h (0 Bft)
04.08.2009 20:46 24,8 C 22,1 C 0,1 UV-I 0,0 C 46 % 50 % 0 % 1021,9 hPa 0,0 l/m 0,0 km/h (0 Bft) 0 min 0,0 km/h (0 Bft)
04.08.2009 20:48 24,8 C 22,1 C 0,0 UV-I 0,0 C 47 % 50 % 0 % 1021,9 hPa 0,0 l/m 0,0 km/h (0 Bft) 0 min 0,0 km/h (0 Bft)
04.08.2009 20:50 24,8 C 22,0 C 0,0 UV-I 0,0 C 47 % 51 % 0 % 1021,9 hPa 0,0 l/m 0,0 km/h (0 Bft) 0 min 0,0 km/h (0 Bft)
04.08.2009 20:52 24,8 C 21,9 C 0,0 UV-I 0,0 C 47 % 52 % 0 % 1021,9 hPa 0,0 l/m 0,0 km/h (0 Bft) 0 min 0,0 km/h (0 Bft)
04.08.2009 20:54 24,8 C 21,9 C 0,0 UV-I 0,0 C 47 % 52 % 0 % 1021,9 hPa 0,0 l/m 0,0 km/h (0 Bft) 0 min 0,0 km/h (0 Bft)
04.08.2009 20:56 24,8 C 21,9 C 0,0 UV-I 0,0 C 47 % 52 % 0 % 1022,1 hPa 0,0 l/m 0,0 km/h (0 Bft) 0 min 0,0 km/h (0 Bft)
04.08.2009 20:58 24,7 C 21,7 C 0,0 UV-I 0,0 C 47 % 52 % 0 % 1022,1 hPa 0,0 l/m 0,0 km/h (0 Bft) 0 min 0,0 km/h (0 Bft)
04.08.2009 21:00 24,7 C 21,6 C 0,0 UV-I 0,0 C 47 % 52 % 0 % 1022,1 hPa 0,0 l/m 0,0 km/h (0 Bft) 0 min 0,0 km/h (0 Bft)
04.08.2009 21:02 24,7 C 21,7 C 0,0 UV-I 0,0 C 47 % 53 % 0 % 1022,1 hPa 0,0 l/m 0,0 km/h (0 Bft) 0 min 0,0 km/h (0 Bft)
04.08.2009 21:04 24,7 C 21,6 C 0,0 UV-I 0,0 C 47 % 53 % 0 % 1022,1 hPa 0,0 l/m 0,0 km/h (0 Bft) 0 min 0,0 km/h (0 Bft)
04.08.2009 21:06 24,6 C 21,5 C 0,0 UV-I 0,0 C 47 % 54 % 0 % 1022,1 hPa 0,0 l/m 0,0 km/h (0 Bft) 0 min 0,0 km/h (0 Bft)
04.08.2009 21:08 24,6 C 21,4 C 0,0 UV-I 0,0 C 47 % 54 % 0 % 1022,1 hPa 0,0 l/m 0,0 km/h (0 Bft) 0 min 0,0 km/h (0 Bft)
04.08.2009 21:10 24,6 C 21,2 C 0,0 UV-I 0,0 C 47 % 54 % 0 % 1022,1 hPa 0,0 l/m 0,0 km/h (0 Bft) 0 min 0,0 km/h (0 Bft)
04.08.2009 21:12 24,6 C 21,2 C 0,0 UV-I 0,0 C 47 % 54 % 0 % 1022,1 hPa 0,0 l/m 0,0 km/h (0 Bft) 0 min 0,0 km/h (0 Bft)
04.08.2009 21:14 24,6 C 21,1 C 0,0 UV-I 0,0 C 47 % 55 % 0 % 1022,1 hPa 0,0 l/m 0,0 km/h (0 Bft) 0 min 0,0 km/h (0 Bft)
04.08.2009 21:16 24,6 C 21,1 C 0,0 UV-I 0,0 C 47 % 55 % 0 % 1022,0 hPa 0,0 l/m 0,0 km/h (0 Bft) 0 min 0,0 km/h (0 Bft)
04.08.2009 21:18 24,6 C 20,9 C 0,0 UV-I 0,0 C 47 % 56 % 0 % 1022,0 hPa 0,0 l/m 0,0 km/h (0 Bft) 0 min 0,0 km/h (0 Bft)
04.08.2009 21:20 24,5 C 20,8 C 0,0 UV-I 0,0 C 47 % 55 % 0 % 1022,0 hPa 0,0 l/m 0,0 km/h (0 Bft) 0 min 0,0 km/h (0 Bft)
04.08.2009 21:22 24,5 C 20,9 C 0,0 UV-I 0,0 C 48 % 56 % 0 % 1022,0 hPa 0,0 l/m 0,0 km/h (0 Bft) 0 min 0,0 km/h (0 Bft)
04.08.2009 21:24 24,5 C 20,7 C 0,0 UV-I 0,0 C 48 % 56 % 0 % 1022,0 hPa 0,0 l/m 0,0 km/h (0 Bft) 0 min 0,0 km/h (0 Bft)
04.08.2009 21:26 24,4 C 20,6 C 0,0 UV-I 0,0 C 48 % 56 % 0 % 1022,0 hPa 0,0 l/m 0,0 km/h (0 Bft) 0 min 0,0 km/h (0 Bft)
04.08.2009 21:28 24,4 C 20,5 C 0,0 UV-I 0,0 C 48 % 57 % 0 % 1022,0 hPa 0,0 l/m 0,0 km/h (0 Bft) 0 min 0,0 km/h (0 Bft)
04.08.2009 21:30 24,4 C 20,4 C 0,0 UV-I 0,0 C 48 % 58 % 0 % 1022,0 hPa 0,0 l/m 0,0 km/h (0 Bft) 0 min 0,0 km/h (0 Bft)
04.08.2009 21:32 24,4 C 20,5 C 0,0 UV-I 0,0 C 48 % 58 % 0 % 1022,0 hPa 0,0 l/m 0,0 km/h (0 Bft) 0 min 0,0 km/h (0 Bft)
04.08.2009 21:34 24,4 C 20,3 C 0,0 UV-I 0,0 C 48 % 57 % 0 % 1022,0 hPa 0,0 l/m 0,0 km/h (0 Bft) 0 min 0,0 km/h (0 Bft)
04.08.2009 21:36 24,4 C 20,3 C 0,0 UV-I 0,0 C 48 % 58 % 0 % 1022,3 hPa 0,0 l/m 0,0 km/h (0 Bft) 0 min 0,0 km/h (0 Bft)
04.08.2009 21:38 24,2 C 20,1 C 0,0 UV-I 0,0 C 48 % 58 % 0 % 1022,3 hPa 0,0 l/m 0,0 km/h (0 Bft) 0 min 0,0 km/h (0 Bft)
04.08.2009 21:40 24,2 C 20,0 C 0,0 UV-I 0,0 C 48 % 58 % 0 % 1022,3 hPa 0,0 l/m 0,0 km/h (0 Bft) 0 min 0,0 km/h (0 Bft)
04.08.2009 21:42 24,2 C 20,1 C 0,0 UV-I 0,0 C 48 % 59 % 0 % 1022,3 hPa 0,0 l/m 0,0 km/h (0 Bft) 0 min 0,0 km/h (0 Bft)
04.08.2009 21:44 24,3 C 19,9 C 0,0 UV-I 0,0 C 48 % 59 % 0 % 1022,3 hPa 0,0 l/m 0,0 km/h (0 Bft) 0 min 0,0 km/h (0 Bft)
04.08.2009 21:46 24,2 C 19,9 C 0,0 UV-I 0,0 C 48 % 59 % 0 % 1022,3 hPa 0,0 l/m 0,0 km/h (0 Bft) 0 min 0,0 km/h (0 Bft)
04.08.2009 21:48 24,3 C 19,8 C 0,0 UV-I 0,0 C 48 % 60 % 0 % 1022,3 hPa 0,0 l/m 0,0 km/h (0 Bft) 0 min 0,0 km/h (0 Bft)
04.08.2009 21:50 24,2 C 19,7 C 0,0 UV-I 0,0 C 48 % 60 % 0 % 1022,3 hPa 0,0 l/m 0,0 km/h (0 Bft) 0 min 0,0 km/h (0 Bft)
04.08.2009 21:52 24,2 C 19,6 C 0,0 UV-I 0,0 C 48 % 60 % 0 % 1022,3 hPa 0,0 l/m 0,0 km/h (0 Bft) 0 min 0,0 km/h (0 Bft)
04.08.2009 21:54 24,2 C 19,6 C 0,0 UV-I 0,0 C 48 % 60 % 0 % 1022,3 hPa 0,0 l/m 0,0 km/h (0 Bft) 0 min 0,0 km/h (0 Bft)
04.08.2009 21:58 24,2 C 19,5 C 0,0 UV-I 0,0 C 49 % 60 % 0 % 1022,1 hPa 0,0 l/m 0,0 km/h (0 Bft) 0 min 0,0 km/h (0 Bft)
04.08.2009 22:02 24,1 C 19,3 C 0,0 UV-I 0,0 C 49 % 61 % 0 % 1022,1 hPa 0,0 l/m 0,0 km/h (0 Bft) 0 min 0,0 km/h (0 Bft)
04.08.2009 22:04 24,1 C 19,3 C 0,0 UV-I 0,0 C 49 % 61 % 0 % 1022,1 hPa 0,0 l/m 0,0 km/h (0 Bft) 0 min 0,0 km/h (0 Bft)
04.08.2009 22:06 24,1 C 19,1 C 0,0 UV-I 0,0 C 49 % 62 % 0 % 1022,1 hPa 0,0 l/m 0,0 km/h (0 Bft) 0 min 0,0 km/h (0 Bft)
04.08.2009 22:08 24,1 C 19,1 C 0,0 UV-I 0,0 C 49 % 62 % 0 % 1022,1 hPa 0,0 l/m 0,0 km/h (0 Bft) 0 min 0,0 km/h (0 Bft)
04.08.2009 22:10 24,1 C 19,1 C 0,0 UV-I 0,0 C 49 % 62 % 0 % 1022,1 hPa 0,0 l/m 0,0 km/h (0 Bft) 0 min 0,0 km/h (0 Bft)
04.08.2009 22:12 24,0 C 19,0 C 0,0 UV-I 0,0 C 49 % 62 % 0 % 1022,1 hPa 0,0 l/m 0,0 km/h (0 Bft) 0 min 0,0 km/h (0 Bft)
04.08.2009 22:14 24,0 C 18,9 C 0,0 UV-I 0,0 C 49 % 62 % 0 % 1022,1 hPa 0,0 l/m 0,0 km/h (0 Bft) 0 min 0,0 km/h (0 Bft)
04.08.2009 22:16 24,0 C 18,9 C 0,0 UV-I 0,0 C 49 % 62 % 0 % 1022,2 hPa 0,0 l/m 0,0 km/h (0 Bft) 0 min 0,0 km/h (0 Bft)
04.08.2009 22:18 24,0 C 18,8 C 0,0 UV-I 0,0 C 49 % 62 % 0 % 1022,2 hPa 0,0 l/m 0,0 km/h (0 Bft) 0 min 0,0 km/h (0 Bft)
04.08.2009 22:20 24,0 C 18,7 C 0,0 UV-I 0,0 C 49 % 63 % 0 % 1022,2 hPa 0,0 l/m 0,0 km/h (0 Bft) 0 min 0,0 km/h (0 Bft)
04.08.2009 22:22 24,0 C 18,7 C 0,0 UV-I 0,0 C 49 % 63 % 0 % 1022,2 hPa 0,0 l/m 0,0 km/h (0 Bft) 0 min 0,0 km/h (0 Bft)
04.08.2009 22:24 24,0 C 18,6 C 0,0 UV-I 0,0 C 49 % 63 % 0 % 1022,2 hPa 0,0 l/m 0,0 km/h (0 Bft) 0 min 0,0 km/h (0 Bft)
04.08.2009 22:26 24,0 C 18,5 C 0,0 UV-I 0,0 C 49 % 64 % 0 % 1022,2 hPa 0,0 l/m 0,0 km/h (0 Bft) 0 min 0,0 km/h (0 Bft)
04.08.2009 22:28 24,0 C 18,4 C 0,0 UV-I 0,0 C 49 % 64 % 0 % 1022,2 hPa 0,0 l/m 0,0 km/h (0 Bft) 0 min 0,0 km/h (0 Bft)
04.08.2009 22:30 23,9 C 18,5 C 0,0 UV-I 0,0 C 49 % 64 % 0 % 1022,2 hPa 0,0 l/m 0,0 km/h (0 Bft) 0 min 0,0 km/h (0 Bft)
04.08.2009 22:32 23,9 C 18,3 C 0,0 UV-I 0,0 C 50 % 65 % 0 % 1022,2 hPa 0,0 l/m 0,0 km/h (0 Bft) 0 min 0,0 km/h (0 Bft)
04.08.2009 22:34 23,9 C 18,3 C 0,0 UV-I 0,0 C 50 % 65 % 0 % 1022,2 hPa 0,0 l/m 0,0 km/h (0 Bft) 0 min 0,0 km/h (0 Bft)
04.08.2009 22:36 23,9 C 18,3 C 0,0 UV-I 0,0 C 50 % 65 % 0 % 1022,5 hPa 0,0 l/m 0,0 km/h (0 Bft) 0 min 0,0 km/h (0 Bft)
04.08.2009 22:38 23,8 C 18,2 C 0,0 UV-I 0,0 C 50 % 65 % 0 % 1022,5 hPa 0,0 l/m 0,0 km/h (0 Bft) 0 min 0,0 km/h (0 Bft)
04.08.2009 22:40 23,8 C 18,1 C 0,0 UV-I 0,0 C 50 % 65 % 0 % 1022,5 hPa 0,0 l/m 0,0 km/h (0 Bft) 0 min 0,0 km/h (0 Bft)
04.08.2009 22:42 23,8 C 18,0 C 0,0 UV-I 0,0 C 50 % 65 % 0 % 1022,5 hPa 0,0 l/m 0,0 km/h (0 Bft) 0 min 0,0 km/h (0 Bft)
04.08.2009 22:44 23,8 C 18,0 C 0,0 UV-I 0,0 C 50 % 65 % 0 % 1022,5 hPa 0,0 l/m 0,0 km/h (0 Bft) 0 min 0,0 km/h (0 Bft)
04.08.2009 22:46 23,8 C 17,9 C 0,0 UV-I 0,0 C 50 % 65 % 0 % 1022,5 hPa 0,0 l/m 0,0 km/h (0 Bft) 0 min 0,0 km/h (0 Bft)
04.08.2009 22:48 23,8 C 17,9 C 0,0 UV-I 0,0 C 50 % 66 % 0 % 1022,5 hPa 0,0 l/m 0,0 km/h (0 Bft) 0 min 0,0 km/h (0 Bft)
04.08.2009 22:50 23,8 C 17,8 C 0,0 UV-I 0,0 C 50 % 65 % 0 % 1022,5 hPa 0,0 l/m 0,0 km/h (0 Bft) 0 min 0,0 km/h (0 Bft)
04.08.2009 22:52 23,8 C 17,8 C 0,0 UV-I 0,0 C 50 % 66 % 0 % 1022,5 hPa 0,0 l/m 0,0 km/h (0 Bft) 0 min 0,0 km/h (0 Bft)
04.08.2009 22:54 23,8 C 17,7 C 0,0 UV-I 0,0 C 50 % 66 % 0 % 1022,5 hPa 0,0 l/m 0,0 km/h (0 Bft) 0 min 0,0 km/h (0 Bft)
04.08.2009 22:56 23,8 C 17,6 C 0,0 UV-I 0,0 C 50 % 66 % 0 % 1022,2 hPa 0,0 l/m 0,0 km/h (0 Bft) 0 min 0,0 km/h (0 Bft)
04.08.2009 22:58 23,7 C 17,7 C 0,0 UV-I 0,0 C 50 % 66 % 0 % 1022,2 hPa 0,0 l/m 0,0 km/h (0 Bft) 0 min 0,0 km/h (0 Bft)
04.08.2009 23:00 23,7 C 17,6 C 0,0 UV-I 0,0 C 50 % 66 % 0 % 1022,2 hPa 0,0 l/m 0,0 km/h (0 Bft) 0 min 0,0 km/h (0 Bft)
04.08.2009 23:02 23,7 C 17,5 C 0,0 UV-I 0,0 C 50 % 66 % 0 % 1022,2 hPa 0,0 l/m 0,0 km/h (0 Bft) 0 min 0,0 km/h (0 Bft)
04.08.2009 23:04 23,7 C 17,5 C 0,0 UV-I 0,0 C 50 % 67 % 0 % 1022,2 hPa 0,0 l/m 0,0 km/h (0 Bft) 0 min 0,0 km/h (0 Bft)
04.08.2009 23:06 23,7 C 17,5 C 0,0 UV-I 0,0 C 50 % 67 % 0 % 1022,2 hPa 0,0 l/m 0,0 km/h (0 Bft) 0 min 0,0 km/h (0 Bft)
04.08.2009 23:08 23,7 C 17,4 C 0,0 UV-I 0,0 C 50 % 67 % 0 % 1022,2 hPa 0,0 l/m 0,0 km/h (0 Bft) 0 min 0,0 km/h (0 Bft)
04.08.2009 23:12 23,6 C 17,2 C 0,0 UV-I 0,0 C 50 % 68 % 0 % 1022,2 hPa 0,0 l/m 0,0 km/h (0 Bft) 0 min 0,0 km/h (0 Bft)
04.08.2009 23:14 23,6 C 17,2 C 0,0 UV-I 0,0 C 50 % 69 % 0 % 1022,2 hPa 0,0 l/m 0,0 km/h (0 Bft) 0 min 0,0 km/h (0 Bft)
04.08.2009 23:16 23,6 C 17,2 C 0,0 UV-I 0,0 C 50 % 69 % 0 % 1022,4 hPa 0,0 l/m 0,0 km/h (0 Bft) 0 min 0,0 km/h (0 Bft)
04.08.2009 23:18 23,6 C 17,1 C 0,0 UV-I 0,0 C 50 % 69 % 0 % 1022,4 hPa 0,0 l/m 0,0 km/h (0 Bft) 0 min 0,0 km/h (0 Bft)
04.08.2009 23:20 23,6 C 17,1 C 0,0 UV-I 0,0 C 50 % 69 % 0 % 1022,4 hPa 0,0 l/m 0,0 km/h (0 Bft) 0 min 0,0 km/h (0 Bft)
04.08.2009 23:22 23,6 C 17,0 C 0,0 UV-I 0,0 C 50 % 70 % 0 % 1022,4 hPa 0,0 l/m 0,0 km/h (0 Bft) 0 min 0,0 km/h (0 Bft)
04.08.2009 23:24 23,6 C 17,0 C 0,0 UV-I 0,0 C 50 % 70 % 0 % 1022,4 hPa 0,0 l/m 0,0 km/h (0 Bft) 0 min 0,0 km/h (0 Bft)
04.08.2009 23:26 23,6 C 16,9 C 0,0 UV-I 0,0 C 50 % 70 % 0 % 1022,4 hPa 0,0 l/m 0,0 km/h (0 Bft) 0 min 0,0 km/h (0 Bft)
04.08.2009 23:28 23,6 C 16,9 C 0,0 UV-I 0,0 C 51 % 71 % 0 % 1022,4 hPa 0,0 l/m 0,0 km/h (0 Bft) 0 min 0,0 km/h (0 Bft)
04.08.2009 23:30 23,6 C 16,9 C 0,0 UV-I 0,0 C 51 % 71 % 0 % 1022,4 hPa 0,0 l/m 0,0 km/h (0 Bft) 0 min 0,0 km/h (0 Bft)
04.08.2009 23:32 23,6 C 16,9 C 0,0 UV-I 0,0 C 51 % 71 % 0 % 1022,4 hPa 0,0 l/m 0,0 km/h (0 Bft) 0 min 0,0 km/h (0 Bft)
04.08.2009 23:34 23,5 C 16,8 C 0,0 UV-I 0,0 C 51 % 72 % 0 % 1022,4 hPa 0,0 l/m 0,0 km/h (0 Bft) 0 min 0,0 km/h (0 Bft)
04.08.2009 23:36 23,5 C 16,7 C 0,0 UV-I 0,0 C 51 % 72 % 0 % 1022,4 hPa 0,0 l/m 0,0 km/h (0 Bft) 0 min 0,0 km/h (0 Bft)
04.08.2009 23:38 23,5 C 16,7 C 0,0 UV-I 0,0 C 51 % 72 % 0 % 1022,4 hPa 0,0 l/m 0,0 km/h (0 Bft) 0 min 0,0 km/h (0 Bft)
04.08.2009 23:40 23,5 C 16,7 C 0,0 UV-I 0,0 C 51 % 72 % 0 % 1022,4 hPa 0,0 l/m 0,0 km/h (0 Bft) 0 min 0,0 km/h (0 Bft)
04.08.2009 23:42 23,5 C 16,7 C 0,0 UV-I 0,0 C 51 % 72 % 0 % 1022,4 hPa 0,0 l/m 0,0 km/h (0 Bft) 0 min 0,0 km/h (0 Bft)
04.08.2009 23:44 23,5 C 16,5 C 0,0 UV-I 0,0 C 51 % 72 % 0 % 1022,4 hPa 0,0 l/m 0,0 km/h (0 Bft) 0 min 0,0 km/h (0 Bft)
04.08.2009 23:46 23,5 C 16,5 C 0,0 UV-I 0,0 C 51 % 72 % 0 % 1022,4 hPa 0,0 l/m 0,0 km/h (0 Bft) 0 min 0,0 km/h (0 Bft)
04.08.2009 23:48 23,5 C 16,4 C 0,0 UV-I 0,0 C 51 % 72 % 0 % 1022,4 hPa 0,0 l/m 0,0 km/h (0 Bft) 0 min 0,0 km/h (0 Bft)
04.08.2009 23:50 23,4 C 16,5 C 0,0 UV-I 0,0 C 51 % 73 % 0 % 1022,4 hPa 0,0 l/m 0,0 km/h (0 Bft) 0 min 0,0 km/h (0 Bft)
04.08.2009 23:54 23,4 C 16,3 C 0,0 UV-I 0,0 C 51 % 73 % 0 % 1022,4 hPa 0,0 l/m 0,0 km/h (0 Bft) 0 min 0,0 km/h (0 Bft)
04.08.2009 23:56 23,4 C 16,3 C 0,0 UV-I 0,0 C 51 % 73 % 0 % 1022,3 hPa 0,0 l/m 0,0 km/h (0 Bft) 0 min 0,0 km/h (0 Bft)
04.08.2009 23:58 23,4 C 16,3 C 0,0 UV-I 0,0 C 51 % 73 % 0 % 1022,3 hPa 0,0 l/m 0,0 km/h (0 Bft) 0 min 0,0 km/h (0 Bft)
_ Min-Zeit 07:10 06:44 00:00 00:00 17:36 17:26 00:00 00:18 - 00:00 - 00:00
Minimum _ 20,1 C 9,5 C 0,0 UV-I 0,0 C 43 % 32 % 0 % 1019,6 hPa - 0,0 km/h (0 Bft) - 0,0 km/h (0 Bft)
_ Max-Zeit 18:00 16:14 10:58 10:26 10:08 08:08 09:54 14:16 00:00 14:58 09:52 12:42
Maximum _ 26,5 C 28,4 C 13,8 UV-I 9,4 C 58 % 93 % 100 % 1022,6 hPa 0,0 l/m 4,3 km/h
N (1 Bft)
2 min 12,8 km/h
S (3 Bft)
Durchschnitt _ 22,6 C 18,3 C 2,9 UV-I 2,2 C 52 % 65 % 40 % 1021,3 hPa #0,0 l/m 0,6 km/h (0 Bft) #8:36 h 1,5 km/h (1 Bft)
© 2012 W. Hausmann